Index of /watch_images/9739

[ICO]NameLast modifiedSizeDescription

[PARENTDIR]Parent Directory  -  
[IMG]97388554-vesuvius-volcano-crater-in-the-gulf-of-naples-italyft160_medium.jpg2017-01-09 21:38 168K 
[IMG]97388561-sick-young-woman-lying-on-the-sofa-at-home-fluft160_medium.jpg2017-01-09 21:38 158K 
[IMG]97388562-typical-houses-on-river-in-amsterdamft160_medium.jpg2017-01-09 21:36 181K 
[IMG]97388593-girl-holding-headphonesft160_medium.jpg2017-01-09 21:34 182K 
[IMG]97388600ft160_medium.jpg2017-01-09 21:33 190K 
[IMG]97388609-girl-making-selfie-outdoorft160_medium.jpg2017-01-09 21:34 150K 
[IMG]97388614-close-up-of-a-pile-of-colorful-chocolate-coated-candy-color-caft160_medium.jpg2017-01-09 21:33 263K 
[IMG]97388623-fir-branches-in-the-snow-photo-of-snow-covered-fir-branches-during-a-snowfallft160_medium.jpg2017-01-09 21:35 138K 
[IMG]97388630-fir-branches-in-the-snow-photo-of-snow-covered-fir-branches-during-a-snowfallft160_medium.jpg2017-01-09 21:35 173K 
[IMG]97388634-bruecke-und-rheinturmft160_medium.jpg2017-01-09 21:34 166K 
[IMG]97388639-mosaic-from-small-pebble-closeupft160_medium.jpg2017-01-09 21:32 237K 
[IMG]97388644-bear-watching-for-competitors-while-eatingft160_medium.jpg2017-01-09 21:38 162K 
[IMG]97388646ft160_medium.jpg2017-01-09 21:37 182K 
[IMG]97388654-sick-young-woman-lying-on-the-sofa-at-home-fluft160_medium.jpg2017-01-09 21:38 166K 
[IMG]97388684-mountain-road-country-road-at-the-european-alpsft160_medium.jpg2017-01-09 21:38 156K 
[IMG]97388720ft160_medium.jpg2017-01-09 21:38 184K 
[IMG]97388748-winter-with-christmas-trees-and-snowman-and-girl-elfft160_medium.jpg2017-01-09 21:39 138K 
[IMG]97388753-funny-sporty-brunette-girlft160_medium.jpg2017-01-09 21:35 148K 
[IMG]97388765-keychain-and-many-keys-on-gray-tile-backgroundft160_medium.jpg2017-01-09 21:33 134K 
[IMG]97388772ft160_medium.jpg2017-01-09 21:34 216K 
[IMG]97388773-wooden-prayer-tablets-in-a-temple-in-kurashiki-japanft160_medium.jpg2017-01-09 21:38 195K 
[IMG]97388774-brunette-girl-in-sports-outfitsft160_medium.jpg2017-01-09 21:35 136K 
[IMG]97388781-sporty-brunette-doing-squatsft160_medium.jpg2017-01-09 21:35 139K 
[IMG]97388787-fawn-and-mom-deer-focus-on-baby-eyeft160_medium.jpg2017-01-09 21:36 189K 
[IMG]97388789-happy-couple-with-bikesft160_medium.jpg2017-01-09 21:34 178K 
[IMG]97388794-egyptian-hieroglyphs-hieroglyphic-carvings-on-a-wallft160_medium.jpg2017-01-09 21:37 148K 
[IMG]97388801--happy-young-sporty-brunette-giving-thumbs-up-gestureft160_medium.jpg2017-01-09 21:35 137K 
[IMG]97388803-word-flu-in-a-tablet-computerft160_medium.jpg2017-01-09 21:37 157K 
[IMG]97388811-happy-new-year-2016ft160_medium.jpg2017-01-09 21:39 145K 
[IMG]97388824-uncooked-buckwheat-seedsft160_medium.jpg2017-01-09 21:35 220K 
[IMG]97388835-keychain-and-many-keys-on-gray-tile-backgroundft160_medium.jpg2017-01-09 21:33 172K 
[IMG]97388862-ostrich-head-closeupft160_medium.jpg2017-01-09 21:38 137K 
[IMG]97388871-close-up-athletic-woman-with-strong-absft160_medium.jpg2017-01-09 21:36 141K 
[IMG]97388876-athletic-woman-with-strong-abs-and-flat-bellyft160_medium.jpg2017-01-09 21:35 148K 
[IMG]97388880-lake-garda-asphalt-roadft160_medium.jpg2017-01-09 21:38 156K 
[IMG]97388881-athletic-woman-smiling-and-holding-purple-dumbbellsft160_medium.jpg2017-01-09 21:35 151K 
[IMG]97388888ft160_medium.jpg2017-01-09 21:35 129K 
[IMG]97388893ft160_medium.jpg2017-01-09 21:37 196K 
[IMG]97388896-rheinkniebrueckeft160_medium.jpg2017-01-09 21:32 175K 
[IMG]97388898-spring-tulips-and-irisesft160_medium.jpg2017-01-09 21:37 170K 
[IMG]97388899-countryside-road-in-autumnft160_medium.jpg2017-01-09 21:33 169K 
[IMG]97388904-pretty-athletic-woman-holding-purple-dumbbells-copy-spaceft160_medium.jpg2017-01-09 21:32 125K 
[IMG]97388918-rheinturm-und-landtagft160_medium.jpg2017-01-09 21:36 145K 
[IMG]97388921-tropical-beach-sea-and-coconut-palm-landscape-of-paradise-trft160_medium.jpg2017-01-09 21:33 153K 
[IMG]97388936-brutal-man-in-a-white-t-shirt-and-jeans-standing-on-the-cement-wall-backgroundft160_medium.jpg2017-01-09 21:33 156K 
[IMG]97388950-connemara-county-galway-ireland-ft160_medium.jpg2017-01-09 21:35 174K 
[IMG]97388960-vector-infographics-elementft160_medium.jpg2017-01-09 21:32 134K 
[IMG]97388961-ostrich-head-closeupft160_medium.jpg2017-01-09 21:38 144K 
[IMG]97388968-old-book-open-isolated-on-white-backgroundft160_medium.jpg2017-01-09 21:38 147K 
[IMG]97388977ft160_medium.jpg2017-01-09 21:37 178K 
[IMG]97388983-wooden-prayer-tablets-in-a-temple-in-kurashiki-japanft160_medium.jpg2017-01-09 21:35 194K 
[IMG]97388993-speciale-italian-pizza-baked-in-a-wood-ovenft160_medium.jpg2017-01-09 21:36 205K 
[IMG]97388998-zuhauseft160_medium.jpg2017-01-09 21:32 184K 
[IMG]97388999-wooden-prayer-tablets-in-a-temple-in-kurashiki-japanft160_medium.jpg2017-01-09 21:36 195K 
[IMG]97389043-old-egypt-hieroglyphsft160_medium.jpg2017-01-09 21:34 208K 
[IMG]97389094ft160_medium.jpg2017-01-09 21:36 196K 
[IMG]97389143-typical-houses-on-river-in-amsterdamft160_medium.jpg2017-01-09 21:32 215K 
[IMG]97389162-autumn-fog-and-smogft160_medium.jpg2017-01-09 21:35 156K 
[IMG]97389164-christmas-chalkboard-background-with-snowflakesft160_medium.jpg2017-01-09 21:37 156K 
[IMG]97389167-antarktis-eisbergft160_medium.jpg2017-01-09 21:39 144K 
[IMG]97389172-2016-merry-christmas-and-happy-new-year-backgroundft160_medium.jpg2017-01-09 21:37 146K 
[IMG]97389199-rain-drops-on-window-rainy-dayft160_medium.jpg2017-01-09 21:39 174K 
[IMG]97389241-2016-merry-christmas-and-happy-new-year-backgroundft160_medium.jpg2017-01-09 21:34 153K 
[IMG]97389252-gorgeous-model-posing-in-the-studio-on-blue-background-ft160_medium.jpg2017-01-09 21:38 157K 
[IMG]97389289-panorama-of-vineyards-view-of-grape-plantation-vineyards-lanft160_medium.jpg2017-01-09 21:36 142K 
[IMG]97389290-2016-merry-christmas-and-happy-new-year-backgroundft160_medium.jpg2017-01-09 21:33 183K 
[IMG]97389300-panorama-of-vineyards-view-of-grape-plantation-vineyards-lanft160_medium.jpg2017-01-09 21:37 198K 
[IMG]97389342-moscow-russia-red-square-view-of-st-basil-s-cathedralft160_medium.jpg2017-01-09 21:33 192K 
[IMG]97389345-muscular-man-wearing-a-blank-white-t-shirtft160_medium.jpg2017-01-09 21:38 153K 
[IMG]97389377-athletic-man-wearing-a-blank-white-t-shirtft160_medium.jpg2017-01-09 21:35 140K 
[IMG]97389381ft160_medium.jpg2017-01-09 21:37 190K 
[IMG]97389386-white-wagtail-motacilla-alba-with-caught-fly-in-its-mouth-sitting-on-a-trunk-closeup-4k-uhdft160_medium.jpg2017-01-09 21:35 156K 
[IMG]97389411-svizzera-la-citta-di-freiburg-ft160_medium.jpg2017-01-09 21:33 163K 
[IMG]97389420-mushrooms-on-a-stump-in-a-pine-forestft160_medium.jpg2017-01-09 21:36 203K 
[IMG]97389431ft160_medium.jpg2017-01-09 21:36 174K 
[IMG]97389442-blonde-model-with-beautiful-eyes-and-alluring-eyesft160_medium.jpg2017-01-09 21:32 160K 
[IMG]97389470-digitale-informationenft160_medium.jpg2017-01-09 21:38 178K 
[IMG]97389473-fried-chickenft160_medium.jpg2017-01-09 21:32 186K 
[IMG]97389503-glueckskekseft160_medium.jpg2017-01-09 21:36 188K 
[IMG]97389504-watercolor-sketch-shadoof-origami-isolatedft160_medium.jpg2017-01-09 21:32 149K 
[IMG]97389507-lemaire-kanal-antarktisft160_medium.jpg2017-01-09 21:38 156K 
[IMG]97389535-two-cups-of-espresso-on-a-white-wooden-tableft160_medium.jpg2017-01-09 21:39 157K 
[IMG]97389541-2016-merry-christmas-and-happy-new-year-backgroundft160_medium.jpg2017-01-09 21:35 155K 
[IMG]97389551-two-cups-of-coffee-with-cinnamon-sticks-on-a-white-wooden-tableft160_medium.jpg2017-01-09 21:33 159K 
[IMG]97389555-blonde-woman-with-beautiful-eyes-and-alluring-eyesft160_medium.jpg2017-01-09 21:36 158K 
[IMG]97389558-svizzera-alpeggio-di-montagna-ft160_medium.jpg2017-01-09 21:38 146K 
[IMG]97389559-mushrooms-on-a-stump-in-a-pine-forestft160_medium.jpg2017-01-09 21:35 203K 
[IMG]97389564-small-boats-in-the-port-of-vela-luka-on-korcula-island-croatia-ft160_medium.jpg2017-01-09 21:35 153K 
[IMG]97389566-moscow-russia-red-square-view-of-st-basil-s-cathedralft160_medium.jpg2017-01-09 21:38 177K 
[IMG]97389567-2016-merry-christmas-and-happy-new-year-backgroundft160_medium.jpg2017-01-09 21:33 146K 
[IMG]97389575-telescope-overlooking-for-nice-france-cityscape-from-aboveft160_medium.jpg2017-01-09 21:37 156K 
[IMG]97389580-vdfwaister-sonnenplatzft160_medium.jpg2017-01-09 21:39 222K 
[IMG]97389605-fun-food-banana-smileft160_medium.jpg2017-01-09 21:37 145K 
[IMG]97389606-cheerful-girl-fooling-around-on-a-pink-backgroundft160_medium.jpg2017-01-09 21:37 121K 
[IMG]97389611-peace-or-warft160_medium.jpg2017-01-09 21:35 213K 
[IMG]97389625-overtaking-truck-ft160_medium.jpg2017-01-09 21:33 130K 
[IMG]97389632-fun-food-heart-made-from-raspberryft160_medium.jpg2017-01-09 21:36 163K 
[IMG]97389648-young-couple-embracingft160_medium.jpg2017-01-09 21:34 172K 
[IMG]97389650-burnt-car-ft160_medium.jpg2017-01-09 21:39 184K 
[IMG]97389663-burnt-car-ft160_medium.jpg2017-01-09 21:33 195K 
[IMG]97389674-svizzera-alpeggio-di-montagna-ft160_medium.jpg2017-01-09 21:32 154K 
[IMG]97389675--open-hddft160_medium.jpg2017-01-09 21:38 142K 
[IMG]97389692-portrait-of-a-pretty-blonde-in-a-black-dress-on-a-white-backgroundft160_medium.jpg2017-01-09 21:37 152K 
[IMG]97389700-tourist-binoculars-at-niceft160_medium.jpg2017-01-09 21:33 152K 
[IMG]97389702-speciale-italian-pizza-baked-in-a-wood-ovenft160_medium.jpg2017-01-09 21:34 167K 
[IMG]97389705-spring-tulips-and-irisesft160_medium.jpg2017-01-09 21:33 193K 
[IMG]97389709-church-of-the-saviour-on-spilled-blood-st-petersburg-russiaft160_medium.jpg2017-01-09 21:38 137K 
[IMG]97389711-fried-riceft160_medium.jpg2017-01-09 21:32 161K 
[IMG]97389713-new-development-in-lipetsk-ft160_medium.jpg2017-01-09 21:35 199K 
[IMG]97389719-mushrooms-on-a-stump-in-a-pine-forestft160_medium.jpg2017-01-09 21:37 209K 
[IMG]97389722-maple-leaf-on-wooden-background-ft160_medium.jpg2017-01-09 21:32 179K 
[IMG]97389729-athletic-girl-dressed-in-a-white-t-shirt-jumpsft160_medium.jpg2017-01-09 21:32 132K 
[IMG]97389736-cloud-rocket-design-illustrationft160_medium.jpg2017-01-09 21:34 133K 
[IMG]97389748-white-cliff-in-normandyft160_medium.jpg2017-01-09 21:38 170K 
[IMG]97389749-male-hands-pour-grain-oats-in-a-bag-of-sackcloth-slow-motion-240-fps-slowmo-ft160_medium.jpg2017-01-09 21:38 184K 
[IMG]97389761-fried-chickenft160_medium.jpg2017-01-09 21:39 186K 
[IMG]97389769-young-woman-with-a-smile-wearing-a-white-t-shirt-jumpsft160_medium.jpg2017-01-09 21:37 135K 
[IMG]97389779ft160_medium.jpg2017-01-09 21:37 214K 
[IMG]97389781-twig-with-hoarfrostft160_medium.jpg2017-01-09 21:35 194K 
[IMG]97389782-two-red-heartsft160_medium.jpg2017-01-09 21:35 116K 
[IMG]97389787-camel-with-bound-feet-jumping-in-the-desert-in-oman-4k-uhdft160_medium.jpg2017-01-09 21:33 151K 
[IMG]97389790-marble-patterned-texture-background-in-natural-patterned-and-color-for-design-marbles-of-thailand-ft160_medium.jpg2017-01-09 21:37 188K 
[IMG]97389795-tourist-binoculars-at-niceft160_medium.jpg2017-01-09 21:32 178K 
[IMG]97389813-flag-seamless-vector-pattern-of-plastic-partsft160_medium.jpg2017-01-09 21:35 208K 
[IMG]97389814-coffeeft160_medium.jpg2017-01-09 21:37 143K 
[IMG]97389832-survival-setft160_medium.jpg2017-01-09 21:36 178K 
[IMG]97389840-airplanes-leaving-diagonal-trace-on-a-clear-blue-sky-ft160_medium.jpg2017-01-09 21:39 108K 
[IMG]97389861-manhattan-midtown-buildings-new-yorkft160_medium.jpg2017-01-09 21:35 155K 
[IMG]97389864-survival-setft160_medium.jpg2017-01-09 21:32 192K 
[IMG]97389870-church-of-the-saviour-on-spilled-blood-st-petersburg-russiaft160_medium.jpg2017-01-09 21:34 166K 
[IMG]97389875ft160_medium.jpg2017-01-09 21:38 133K 
[IMG]97389879-coffeeft160_medium.jpg2017-01-09 21:33 180K 
[IMG]97389888-2016-merry-christmas-and-happy-new-year-backgroundft160_medium.jpg2017-01-09 21:33 123K 
[IMG]97389901-background-with-retro-camera-vector-illustration-photo-camera-with-flowers-and-birds-camera-with-floral-pattern-ft160_medium.jpg2017-01-09 21:32 159K 
[IMG]97389903-lizardft160_medium.jpg2017-01-09 21:33 182K 
[IMG]97389905-white-cliff-in-normandyft160_medium.jpg2017-01-09 21:38 159K 
[IMG]97389907-espressoft160_medium.jpg2017-01-09 21:36 172K 
[IMG]97389915-small-boy-sitting-near-window-and-thnking-about-somethingft160_medium.jpg2017-01-09 21:36 148K 
[IMG]97389919-old-broken-pier-with-big-stones-and-curvrd-wooden-logs-as-foreground-and-a-small-silhouettee-of-boat-with-figure-of-fisherman-on-horizon-baltic-sea-europeft160_medium.jpg2017-01-09 21:39 139K 
[IMG]97389921-espressoft160_medium.jpg2017-01-09 21:36 166K 
[IMG]97389933-vector-infographics-elementft160_medium.jpg2017-01-09 21:35 129K 
[IMG]97389935-brown-bear-in-the-nature-ft160_medium.jpg2017-01-09 21:38 157K 
[IMG]97389937-sapins-enneiges-ft160_medium.jpg2017-01-09 21:38 180K 
[IMG]97389938-small-boy-sitting-near-window-and-thnking-about-somethingft160_medium.jpg2017-01-09 21:37 136K 
[IMG]97389942-knitted-seamless-pattern-in-gray-and-redft160_medium.jpg2017-01-09 21:33 304K 
[IMG]97389945-cuba-libre-with-lime-on-black-wooden-tableft160_medium.jpg2017-01-09 21:38 151K 
[IMG]97389949-white-cliff-in-normandyft160_medium.jpg2017-01-09 21:35 158K 
[IMG]97389951-small-boy-sitting-near-window-and-thnking-about-somethingft160_medium.jpg2017-01-09 21:36 141K 
[IMG]97389957-a-stack-of-wood-backgroundft160_medium.jpg2017-01-09 21:38 226K 
[IMG]97389966-camel-chewing-closeup-4k-uhdft160_medium.jpg2017-01-09 21:32 176K 
[IMG]97389969-beautiful-view-of-nice-with-a-telescopeft160_medium.jpg2017-01-09 21:39 177K 
[IMG]97389970-cuba-libre-with-lime-on-black-wooden-tableft160_medium.jpg2017-01-09 21:36 148K 
[IMG]97389976-la-pendule-du-travailft160_medium.jpg2017-01-09 21:36 120K 
[IMG]97389977-deich-panoramaft160_medium.jpg2017-01-09 21:33 129K 
[IMG]97389983-smiling-couple-on-a-hike-in-the-countrysideft160_medium.jpg2017-01-09 21:37 159K 
[IMG]97389985-lizardft160_medium.jpg2017-01-09 21:35 186K 
[IMG]97389993-antarktis-eisbergft160_medium.jpg2017-01-09 21:34 124K 
[IMG]97389996-lizardft160_medium.jpg2017-01-09 21:34 216K 
[IMG]97389999-red-insurance-button-isolated-on-white-background-ft160_medium.jpg2017-01-09 21:37 168K 
[IMG]97390014-dollar-orft160_medium.jpg2017-01-09 21:35 119K 
[IMG]97390015-orange-african-sunset-landscape-in-the-red-island-madagascar-ft160_medium.jpg2017-01-09 21:32 162K 
[IMG]97390020-babia-gora-mountain-polandft160_medium.jpg2017-01-09 21:35 174K 
[IMG]97390024-cuba-libre-with-lime-on-black-wooden-tableft160_medium.jpg2017-01-09 21:33 174K 
[IMG]97390026-church-of-the-saviour-on-spilled-blood-st-petersburg-russiaft160_medium.jpg2017-01-09 21:34 167K 
[IMG]97390052-livresterling-orft160_medium.jpg2017-01-09 21:33 114K 
[IMG]97390057-hamburger-rathausft160_medium.jpg2017-01-09 21:36 133K 
[IMG]97390079-hand-put-coins-to-stack-of-coins-on-white-backgroundft160_medium.jpg2017-01-09 21:33 121K 
[IMG]97390090-hamburger-rathausft160_medium.jpg2017-01-09 21:33 199K 
[IMG]97390098-cherry-flowers-and-cherry-berries-seamless-floral-pattern-watercolourft160_medium.jpg2017-01-09 21:37 292K 
[IMG]97390107-center-of-old-riga-city-in-autumn-riga-is-the-capital-and-largest-city-of-latvia-a-major-cultural-historical-and-financial-center-of-the-baltic-regionft160_medium.jpg2017-01-09 21:38 231K 
[IMG]97390110-mountain-signs-polandft160_medium.jpg2017-01-09 21:38 153K 
[IMG]97390112-business-finance-investment-money-saving-coins-in-glass-jar-on-tableft160_medium.jpg2017-01-09 21:37 133K 
[IMG]97390117--lilac-blossomsft160_medium.jpg2017-01-09 21:38 160K 
[IMG]97390134-camels-lying-in-desert-with-camel-warning-sign-in-background-4k-uhdft160_medium.jpg2017-01-09 21:35 143K 
[IMG]97390159-george-digby-wingfield-digby-memorial-sherborne-abbey-dorset-england-ukft160_medium.jpg2017-01-09 21:34 140K 
[IMG]97390163-sick-woman-coughingft160_medium.jpg2017-01-09 21:34 182K 
[IMG]97390168-red-risk-button-isolated-on-white-background-ft160_medium.jpg2017-01-09 21:32 175K 
[IMG]97390169-antarktis-eisbergft160_medium.jpg2017-01-09 21:35 140K 
[IMG]97390170-mountain-signs-polandft160_medium.jpg2017-01-09 21:37 173K 
[IMG]97390184-aerial-panning-view-of-the-skyline-of-london-from-the-financial-district-of-the-docklands-to-the-city-of-londonft160_medium.jpg2017-01-09 21:38 117K 
[IMG]97390191-hocket-sport-game-ft160_medium.jpg2017-01-09 21:34 177K 
[IMG]97390199-plant-a-sunny-day-the-industrial-landscape-running-clouds-time-lapseft160_medium.jpg2017-01-09 21:36 141K 
[IMG]97390203-background-with-apple-flowers-and-leaves-ft160_medium.jpg2017-01-09 21:36 184K 
[IMG]97390206-george-digby-wingfield-digby-memorial-sherborne-abbey-dorset-england-ukft160_medium.jpg2017-01-09 21:38 173K 
[IMG]97390208-hocket-sport-game-ft160_medium.jpg2017-01-09 21:34 180K 
[IMG]97390211-typical-brick-stone-house-on-amsterdam-harbourft160_medium.jpg2017-01-09 21:32 199K 
[IMG]97390212-seamless-pattern-with-yellow-apples-and-leaves-ft160_medium.jpg2017-01-09 21:39 159K 
[IMG]97390216-angelica-archangelica-wild-celeryft160_medium.jpg2017-01-09 21:34 194K 
[IMG]97390217-hocket-sport-game-ft160_medium.jpg2017-01-09 21:38 181K 
[IMG]97390218-cannabis-seamless-patternft160_medium.jpg2017-01-09 21:36 166K 
[IMG]97390231-dalga-sesi-ve-huzurft160_medium.jpg2017-01-09 21:34 135K 
[IMG]97390232-basilica-di-santa-maria-dei-servi-in-bologna-italy-ft160_medium.jpg2017-01-09 21:35 179K 
[IMG]97390238-sugar-cookies-coolingft160_medium.jpg2017-01-09 21:34 195K 
[IMG]97390240-hocket-sport-game-ft160_medium.jpg2017-01-09 21:34 169K 
[IMG]97390244-rome-the-jesus-falls-the-second-time-bronze-reliefft160_medium.jpg2017-01-09 21:37 222K 
[IMG]97390245-hocket-sport-game-ft160_medium.jpg2017-01-09 21:36 153K 
[IMG]97390249-angelica-archangelica-wild-celeryft160_medium.jpg2017-01-09 21:39 221K 
[IMG]97390258-george-digby-wingfield-digby-memorial-sherborne-abbey-dorset-england-ukft160_medium.jpg2017-01-09 21:34 190K 
[IMG]97390277-hocket-sport-game-ft160_medium.jpg2017-01-09 21:38 168K 
[IMG]97390278ft160_medium.jpg2017-01-09 21:37 189K 
[IMG]97390282ft160_medium.jpg2017-01-09 21:34 159K 
[IMG]97390291-hocket-sport-game-ft160_medium.jpg2017-01-09 21:39 180K 
[IMG]97390293-parsley-in-gardenft160_medium.jpg2017-01-09 21:37 209K 
[IMG]97390295-angelica-archangelica-wild-celeryft160_medium.jpg2017-01-09 21:34 240K 
[IMG]97390299-landscape-of-land-s-end-in-cornwall-englandft160_medium.jpg2017-01-09 21:36 167K 
[IMG]97390312-hocket-sport-game-ft160_medium.jpg2017-01-09 21:34 166K 
[IMG]97390314-teide-vulkanft160_medium.jpg2017-01-09 21:33 177K 
[IMG]97390323-hamburger-rathausft160_medium.jpg2017-01-09 21:34 171K 
[IMG]97390326-hocket-sport-game-ft160_medium.jpg2017-01-09 21:37 153K 
[IMG]97390329-pug-give-a-try-cake-close-up-ft160_medium.jpg2017-01-09 21:32 135K 
[IMG]97390340-muede-vom-weihnachtseinkaufft160_medium.jpg2017-01-09 21:37 136K 
[IMG]97390347-hocket-sport-game-ft160_medium.jpg2017-01-09 21:33 178K 
[IMG]97390351-svizzera-abbazia-di-bellelay-ft160_medium.jpg2017-01-09 21:38 167K 
[IMG]97390358-landscape-of-land-s-end-in-cornwall-englandft160_medium.jpg2017-01-09 21:35 183K 
[IMG]97390362-cannabis-seamless-patternft160_medium.jpg2017-01-09 21:33 149K 
[IMG]97390365-vintage-frame-wreath-in-boho-style-feathers-and-spring-flowers-cherry-apple-flower-blossom-watercolorft160_medium.jpg2017-01-09 21:37 174K 
[IMG]97390367-hocket-sport-game-ft160_medium.jpg2017-01-09 21:39 174K 
[IMG]97390371-seamless-repeated-floral-pattern-pink-cherry-sakura-and-apple-flowers-watercolor-ft160_medium.jpg2017-01-09 21:37 278K 
[IMG]97390373-hocket-sport-game-ft160_medium.jpg2017-01-09 21:36 184K 
[IMG]97390375-vintage-border-wreath-with-blossom-flowers-cherry-apple-flower-and-feathers-retro-water-color-in-shabby-chic-styleft160_medium.jpg2017-01-09 21:33 172K 
[IMG]97390378-church-of-the-saviour-on-spilled-blood-st-petersburg-russiaft160_medium.jpg2017-01-09 21:35 177K 
[IMG]97390380-ditsy-border-wreath-with-sakura-flowers-cherry-apple-flower-blossom-watercolourft160_medium.jpg2017-01-09 21:38 172K 
[IMG]97390383-border-wreath-with-spring-blossom-and-feathers-apple-cherry-plum-almond-flowers-watercolorft160_medium.jpg2017-01-09 21:34 174K 
[IMG]97390384-marble-patterned-texture-background-in-natural-patterned-and-color-for-design-marbles-of-thailand-ft160_medium.jpg2017-01-09 21:35 195K 
[IMG]97390396-hocket-sport-game-ft160_medium.jpg2017-01-09 21:35 150K 
[IMG]97390399-vintage-elegant-seamless-floral-pattern-with-birds-ft160_medium.jpg2017-01-09 21:37 195K 
[IMG]97390403-hocket-sport-game-ft160_medium.jpg2017-01-09 21:32 147K 
[IMG]97390404-fermented-sausageft160_medium.jpg2017-01-09 21:32 158K 
[IMG]97390412-white-christmas-starft160_medium.jpg2017-01-09 21:38 209K 
[IMG]97390413-landscape-of-land-s-end-in-cornwall-englandft160_medium.jpg2017-01-09 21:37 178K 
[IMG]97390417-hocket-sport-game-ft160_medium.jpg2017-01-09 21:35 176K 
[IMG]97390420-floral-seamless-pattern-with-birds-pairs-in-spring-flowers-ft160_medium.jpg2017-01-09 21:36 250K 
[IMG]97390422-hocket-sport-game-ft160_medium.jpg2017-01-09 21:37 138K 
[IMG]97390432ft160_medium.jpg2017-01-09 21:38 185K 
[IMG]97390439-tea-cup-bird-and-blooming-flowers-seamless-floral-pattern-watercolour-art-on-white-background-ft160_medium.jpg2017-01-09 21:36 224K 
[IMG]97390445-mushrooms-on-a-stump-in-a-pine-forestft160_medium.jpg2017-01-09 21:37 197K 
[IMG]97390448-cuba-libre-with-lime-on-black-wooden-tableft160_medium.jpg2017-01-09 21:36 164K 
[IMG]97390458-hocket-sport-game-ft160_medium.jpg2017-01-09 21:36 163K 
[IMG]97390467-two-red-burning-candles-and-christmas-ball-bark-background-low-keyft160_medium.jpg2017-01-09 21:37 114K 
[IMG]97390469-houses-typical-english-residential-estateft160_medium.jpg2017-01-09 21:32 164K 
[IMG]97390474-hocket-sport-game-ft160_medium.jpg2017-01-09 21:35 174K 
[IMG]97390481-landscape-of-land-s-end-in-cornwall-englandft160_medium.jpg2017-01-09 21:37 171K 
[IMG]97390482-female-pheasant-on-a-meadow-closeup-4k-uhdft160_medium.jpg2017-01-09 21:35 167K 
[IMG]97390483-hocket-sport-game-ft160_medium.jpg2017-01-09 21:37 211K 
[IMG]97390485-tea-cup-birds-and-flowers-seamless-floral-pattern-watercolor-design-on-paper-background-ft160_medium.jpg2017-01-09 21:36 262K 
[IMG]97390496-purple-tulips-over-wooden-tableft160_medium.jpg2017-01-09 21:32 143K 
[IMG]97390499-tea-cup-birds-and-flowers-seamless-floral-pattern-watercolor-design-on-paper-background-ft160_medium.jpg2017-01-09 21:36 265K 
[IMG]97390503-hocket-sport-game-ft160_medium.jpg2017-01-09 21:38 155K 
[IMG]97390517-land-with-dry-and-cracked-ground-pampa-of-el-leoncitoft160_medium.jpg2017-01-09 21:38 127K 
[IMG]97390521-snow-queenft160_medium.jpg2017-01-09 21:33 148K 
[IMG]97390522-trophy-sport-game-ft160_medium.jpg2017-01-09 21:39 134K 
[IMG]97390529-church-of-the-saviour-on-spilled-blood-st-petersburg-russiaft160_medium.jpg2017-01-09 21:34 186K 
[IMG]97390530-landscape-of-land-s-end-in-cornwall-englandft160_medium.jpg2017-01-09 21:38 160K 
[IMG]97390534-red-help-button-isolated-on-white-background-ft160_medium.jpg2017-01-09 21:36 168K 
[IMG]97390535-fruit-tree-apple-or-cherry-pink-flowers-seamless-floral-swatch-watercolour-art-on-white-backgroundft160_medium.jpg2017-01-09 21:33 253K 
[IMG]97390536-christmas-cardft160_medium.jpg2017-01-09 21:33 105K 
[IMG]97390541-fillet-steak-beef-meatft160_medium.jpg2017-01-09 21:38 144K 
[IMG]97390542-hocket-sport-game-ft160_medium.jpg2017-01-09 21:36 134K 
[IMG]97390546-baked-courgettes-stuffed-with-meatft160_medium.jpg2017-01-09 21:34 217K 
[IMG]97390555-pink-blooming-fruit-flowers-apple-cherry-plum-seamless-floral-pattern-watercolor-on-white-background-ft160_medium.jpg2017-01-09 21:37 260K 
[IMG]97390558-grunge-film-strip-backgroundft160_medium.jpg2017-01-09 21:32 181K 
[IMG]97390561-hocket-sport-game-ft160_medium.jpg2017-01-09 21:39 159K 
[IMG]97390562-allah-in-arabic-writingft160_medium.jpg2017-01-09 21:39 155K 
[IMG]97390565-raw-fillet-beef-steak-and-spices-on-cutting-boardft160_medium.jpg2017-01-09 21:33 156K 
[IMG]97390569-hocket-sport-game-ft160_medium.jpg2017-01-09 21:37 138K 
[IMG]97390572-closeup-of-a-high-pressure-manometer-measuring-natural-gas-pressure-pipes-and-valves-in-the-background-selective-focus-ft160_medium.jpg2017-01-09 21:33 170K 
[IMG]97390575-hocket-sport-game-ft160_medium.jpg2017-01-09 21:37 169K 
[IMG]97390576-pink-apple-cherry-sakura-blooming-flowers-seamless-floral-tiled-swatch-watercolor-on-paper-background-ft160_medium.jpg2017-01-09 21:32 223K 
[IMG]97390579-mushrooms-on-a-stump-in-a-pine-forestft160_medium.jpg2017-01-09 21:38 206K 
[IMG]97390580-white-star-sugar-cookiesft160_medium.jpg2017-01-09 21:36 162K 
[IMG]97390581-retro-pink-apple-and-cherry-flowers-in-blossom-seamless-floral-wallpaper-vintage-watercolor-on-paper-background-ft160_medium.jpg2017-01-09 21:33 256K 
[IMG]97390582-hocket-sport-game-ft160_medium.jpg2017-01-09 21:33 175K 
[IMG]97390585-countryside-walkway-among-autumnal-trees-ft160_medium.jpg2017-01-09 21:37 252K 
[IMG]97390587-pink-apple-cherry-sakura-flowers-seamless-floral-template-watercolour-on-grey-background-ft160_medium.jpg2017-01-09 21:35 213K 
[IMG]97390591-hocket-sport-game-ft160_medium.jpg2017-01-09 21:35 145K 
[IMG]97390599-closeup-of-a-high-pressure-manometer-measuring-natural-gas-pressure-pipes-and-valves-in-the-background-selective-focus-ft160_medium.jpg2017-01-09 21:36 159K 
[IMG]97390600-raw-fillet-beef-steak-and-spicesft160_medium.jpg2017-01-09 21:32 194K 
[IMG]97390604-hocket-sport-game-ft160_medium.jpg2017-01-09 21:37 180K 
[IMG]97390607-pink-apple-cherry-sakura-blooming-flowers-seamless-floral-tiled-swatch-watercolor-on-paper-background-ft160_medium.jpg2017-01-09 21:35 198K 
[IMG]97390610-hocket-sport-game-ft160_medium.jpg2017-01-09 21:37 249K 
[IMG]97390627-calf-sucking-milk-from-mother-on-meadow-closeup-4k-uhdft160_medium.jpg2017-01-09 21:35 159K 
[IMG]97390628-pink-apple-cherry-sakura-flowers-seamless-floral-template-watercolour-on-grey-background-ft160_medium.jpg2017-01-09 21:38 208K 
[IMG]97390630-hocket-sport-game-ft160_medium.jpg2017-01-09 21:38 156K 
[IMG]97390633-pink-apple-cherry-flowers-sakura-in-blossom-seamless-floral-pattern-grey-background-ft160_medium.jpg2017-01-09 21:36 241K 
[IMG]97390637-pink-blooming-apple-cherry-flowers-seamless-floral-pattern-watercolor-on-white-backgroundft160_medium.jpg2017-01-09 21:34 252K 
[IMG]97390638-cuba-libre-with-lime-on-black-wooden-tableft160_medium.jpg2017-01-09 21:39 142K 
[IMG]97390645-hamburger-rathausft160_medium.jpg2017-01-09 21:34 206K 
[IMG]97390648-hocket-sport-game-ft160_medium.jpg2017-01-09 21:38 152K 
[IMG]97390652-olives-tomatoes-herbs-and-condimentsft160_medium.jpg2017-01-09 21:37 170K 
[IMG]97390654-gift-box-goldft160_medium.jpg2017-01-09 21:38 142K 
[IMG]97390657-red-burning-candle-and-christmas-ball-dark-background-low-keyft160_medium.jpg2017-01-09 21:33 108K 
[IMG]97390659-fishing-boat-on-a-protaras-beach-mediterranean-sea-cyprusft160_medium.jpg2017-01-09 21:38 151K 
[IMG]97390666-fruit-tree-apple-or-cherry-flowers-seamless-floral-strip-border-watercolor-painted-banner-ft160_medium.jpg2017-01-09 21:34 155K 
[IMG]97390670-urban-house-with-green-wallsft160_medium.jpg2017-01-09 21:33 202K 
[IMG]97390674-apple-or-cherry-pink-flowers-seamless-floral-stripe-frame-watercolor-painted-fringe-ft160_medium.jpg2017-01-09 21:36 163K 
[IMG]97390678-hocket-sport-game-ft160_medium.jpg2017-01-09 21:33 167K 
[IMG]97390689-apple-or-cherry-pink-flowers-seamless-floral-stripe-frame-botanical-watercolour-painted-edging-ft160_medium.jpg2017-01-09 21:39 147K 
[IMG]97390692-little-funny-parrot-coloring-bookft160_medium.jpg2017-01-09 21:37 196K 
[IMG]97390693-hamburger-rathausft160_medium.jpg2017-01-09 21:33 167K 
[IMG]97390696-old-vintage-grunge-film-strip-backgroundft160_medium.jpg2017-01-09 21:37 173K 
[IMG]97390697-fruit-tree-apple-or-cherry-flowers-seamless-floral-strip-border-botanic-watercolor-painted-banner-ft160_medium.jpg2017-01-09 21:36 146K 
[IMG]97390706-sushift160_medium.jpg2017-01-09 21:35 224K 
[IMG]97390726-oriental-retro-design-with-plums-and-flowers-ft160_medium.jpg2017-01-09 21:36 240K 
[IMG]97390738-floral-watercolor-wallpaper-with-plums-ft160_medium.jpg2017-01-09 21:35 186K 
[IMG]97390739-merry-christmas-seasonal-background-for-your-greeting-cardsft160_medium.jpg2017-01-09 21:38 181K 
[IMG]97390746-merry-christmas-seasonal-background-for-your-greeting-cardsft160_medium.jpg2017-01-09 21:34 217K 
[IMG]97390749-floral-seamless-pattern-with-plums-ft160_medium.jpg2017-01-09 21:37 187K 
[IMG]97390751-white-christmas-wreath-with-burning-candle-ribbon-and-globesft160_medium.jpg2017-01-09 21:33 196K 
[IMG]97390757-italian-food-cooking-ingredients-pasta-vegetables-spicesft160_medium.jpg2017-01-09 21:33 193K 
[IMG]97390759-white-christmas-wreath-with-burning-candle-ribbon-and-globesft160_medium.jpg2017-01-09 21:38 144K 
[IMG]97390760-dockside-cargo-crane-at-river-port-kolymaft160_medium.jpg2017-01-09 21:36 146K 
[IMG]97390761-seamless-pattern-palm-silhouette-vector-illustration-ft160_medium.jpg2017-01-09 21:38 164K 
[IMG]97390773-merry-christmas-seasonal-background-for-your-greeting-cardsft160_medium.jpg2017-01-09 21:34 140K 
[IMG]97390780-golden-christmas-tree-ornaments-with-pearly-balls-decoration-andft160_medium.jpg2017-01-09 21:35 150K 
[IMG]97390786-merry-christmas-seasonal-background-for-your-greeting-cardsft160_medium.jpg2017-01-09 21:33 140K 
[IMG]97390788-smiling-couple-with-map-on-a-hike-in-the-countrysideft160_medium.jpg2017-01-09 21:37 159K 
[IMG]97390789-fishermen-in-the-water-typha-latifolia-reeds-and-trees-moved-by-the-wind-close-to-the-dnieper-river-in-kiev-ukraineft160_medium.jpg2017-01-09 21:37 161K 
[IMG]97390790-golden-christmas-tree-ornaments-with-pearly-balls-decoration-andft160_medium.jpg2017-01-09 21:37 124K 
[IMG]97390791-cuba-libre-with-lime-on-black-wooden-tableft160_medium.jpg2017-01-09 21:39 165K 
[IMG]97390796-grunge-film-strip-backgroundft160_medium.jpg2017-01-09 21:37 147K 
[IMG]97390798-seamless-pattern-vector-illustration-of-cities-silhouette-ft160_medium.jpg2017-01-09 21:38 135K 
[IMG]97390804-merry-christmas-and-a-happy-new-year-greeting-card-poster-banner-font-composition-thin-line-flat-design-ft160_medium.jpg2017-01-09 21:33 141K 
[IMG]97390811-gift-box-goldft160_medium.jpg2017-01-09 21:37 111K 
[IMG]97390815ft160_medium.jpg2017-01-09 21:36 205K 
[IMG]97390818-the-yellow-bike-ft160_medium.jpg2017-01-09 21:36 191K 
[IMG]97390823-air-transport-management-concept-with-doodle-design-styleft160_medium.jpg2017-01-09 21:37 176K 
[IMG]97390827-abstract-blur-colorful-backgroundft160_medium.jpg2017-01-09 21:34 137K 
[IMG]97390833-set-of-symbol-zodiac-sign-vector-illustration-ft160_medium.jpg2017-01-09 21:34 192K 
[IMG]97390839-merry-christmas-and-a-happy-new-year-greeting-card-poster-banner-font-composition-thin-line-flat-design-ft160_medium.jpg2017-01-09 21:34 149K 
[IMG]97390842-set-of-symbol-zodiac-sign-vector-illustration-ft160_medium.jpg2017-01-09 21:36 155K 
[IMG]97390844-cuba-libre-cocktail-on-the-rustic-backgroundft160_medium.jpg2017-01-09 21:39 133K 
[IMG]97390847-ayia-napa-cyprus-fishing-boats-and-yachtsft160_medium.jpg2017-01-09 21:35 161K 
[IMG]97390852-italian-pizza-and-red-wineft160_medium.jpg2017-01-09 21:38 223K 
[IMG]97390854-steinmaennchenft160_medium.jpg2017-01-09 21:35 157K 
[IMG]97390862-set-of-symbol-zodiac-sign-diamond-vector-illustration-ft160_medium.jpg2017-01-09 21:38 196K 
[IMG]97390869ft160_medium.jpg2017-01-09 21:32 150K 
[IMG]97390878-nikolaus-eis-tanne-weihnachtenft160_medium.jpg2017-01-09 21:35 208K 
[IMG]97390881-silhouettes-of-houses-industrial-buildings-and-fortresses-castft160_medium.jpg2017-01-09 21:32 218K 
[IMG]97390897-boats-in-agia-napa-harborft160_medium.jpg2017-01-09 21:34 170K 
[IMG]97390898-paysage-nature-vue-mer-marocft160_medium.jpg2017-01-09 21:33 187K 
[IMG]97390902-boats-in-agia-napa-harborft160_medium.jpg2017-01-09 21:36 201K 
[IMG]97390911-comet-fly-around-the-planet-in-space-vector-illustration-ft160_medium.jpg2017-01-09 21:35 148K 
[IMG]97390913-business-benefit-from-mobile-concept-with-doodle-design-styleft160_medium.jpg2017-01-09 21:37 172K 
[IMG]97390914ft160_medium.jpg2017-01-09 21:33 125K 
[IMG]97390921-cow-feeding-her-calf-in-marshland-medium-shot-4k-uhdft160_medium.jpg2017-01-09 21:34 152K 
[IMG]97390923-gift-box-goldft160_medium.jpg2017-01-09 21:38 157K 
[IMG]97390930-ile-grecqueft160_medium.jpg2017-01-09 21:38 215K 
[IMG]97390935-rome-the-resurrection-of-jesus-bronze-reliefft160_medium.jpg2017-01-09 21:37 249K 
[IMG]97390940-church-of-the-saviour-on-spilled-blood-st-petersburg-russiaft160_medium.jpg2017-01-09 21:33 201K 
[IMG]97390941-comet-fly-around-the-planet-in-space-vector-illustration-ft160_medium.jpg2017-01-09 21:37 170K 
[IMG]97390944-life-buoy-and-sign-dangerous-to-swim-lake-of-wind-argentinaft160_medium.jpg2017-01-09 21:33 156K 
[IMG]97390956-new-year-and-christmas-celebration-with-champagne-slow-motionft160_medium.jpg2017-01-09 21:35 183K 
[IMG]97390961-grunge-film-strip-backgroundft160_medium.jpg2017-01-09 21:39 153K 
[IMG]97390971ft160_medium.jpg2017-01-09 21:36 203K 
[IMG]97390978-space-blue-starry-sky-vector-illustration-ft160_medium.jpg2017-01-09 21:35 159K 
[IMG]97390989-hamburger-rathausft160_medium.jpg2017-01-09 21:36 173K 
[IMG]97390998-antarktis-eisbergft160_medium.jpg2017-01-09 21:38 159K 
[IMG]97391003-gift-box-goldft160_medium.jpg2017-01-09 21:33 148K 
[IMG]97391012-school-supplies-on-blackboard-backgroundft160_medium.jpg2017-01-09 21:36 157K 
[IMG]97391013-winter-holiday-sweater-design-seamless-knitted-patternft160_medium.jpg2017-01-09 21:35 310K 
[IMG]97391015-business-toxic-assets-concept-with-doodle-design-styleft160_medium.jpg2017-01-09 21:33 175K 
[IMG]97391036-summer-travel-and-vacations-ft160_medium.jpg2017-01-09 21:36 154K 
[IMG]97391040-business-toxic-assets-concept-with-doodle-design-styleft160_medium.jpg2017-01-09 21:37 187K 
[IMG]97391041ft160_medium.jpg2017-01-09 21:38 170K 
[IMG]97391053-space-starry-sky-with-the-moon-vector-illustration-ft160_medium.jpg2017-01-09 21:36 222K 
[IMG]97391063-transport-vehicle-serviceft160_medium.jpg2017-01-09 21:35 134K 
[IMG]97391066-new-year-and-christmas-celebration-with-champagne-slow-motionft160_medium.jpg2017-01-09 21:37 167K 
[IMG]97391070-bus-vehicle-iconft160_medium.jpg2017-01-09 21:38 144K 
[IMG]97391074-hamburger-rathausft160_medium.jpg2017-01-09 21:38 211K 
[IMG]97391090-spaghetti-pasta-with-tomatoes-and-basilft160_medium.jpg2017-01-09 21:34 163K 
[IMG]97391095-gift-box-goldft160_medium.jpg2017-01-09 21:37 142K 
[IMG]97391098-ile-grecqueft160_medium.jpg2017-01-09 21:35 175K 
[IMG]97391103-3d-render-sport-motorcycle-on-dark-backgroundft160_medium.jpg2017-01-09 21:32 150K 
[IMG]97391104-colorful-penne-pasta-with-tomatoes-and-basilft160_medium.jpg2017-01-09 21:36 173K 
[IMG]97391113-nature-walksft160_medium.jpg2017-01-09 21:38 160K 
[IMG]97391124-landscape-of-land-s-end-in-cornwall-englandft160_medium.jpg2017-01-09 21:37 177K 
[IMG]97391126ft160_medium.jpg2017-01-09 21:37 201K 
[IMG]97391127-summer-travel-and-vacations-ft160_medium.jpg2017-01-09 21:34 131K 
[IMG]97391131-windrad-panoft160_medium.jpg2017-01-09 21:38 121K 
[IMG]97391135-hand-holding-phone-with-beach-photo-on-the-screen-with-text-share-your-lifeft160_medium.jpg2017-01-09 21:32 136K 
[IMG]97391136-male-pheasant-feeding-on-a-meadow-4k-uhdft160_medium.jpg2017-01-09 21:39 170K 
[IMG]97391146-collection-of-sunscreen-containers-on-sunny-backgroundft160_medium.jpg2017-01-09 21:33 148K 
[IMG]97391152-statua-a-roma-italiaft160_medium.jpg2017-01-09 21:38 149K 
[IMG]97391155-steinmaennchenft160_medium.jpg2017-01-09 21:33 153K 
[IMG]97391163-sushift160_medium.jpg2017-01-09 21:34 258K 
[IMG]97391165-delicious-cocktail-drinkft160_medium.jpg2017-01-09 21:36 146K 
[IMG]97391170-christmas-decorations-isolated-on-white-backgroundft160_medium.jpg2017-01-09 21:36 141K 
[IMG]97391174-landscape-of-land-s-end-in-cornwall-englandft160_medium.jpg2017-01-09 21:37 195K 
[IMG]97391176-earth-on-plate-globe-cut-with-a-knife-cutlery-knife-and-fork-ft160_medium.jpg2017-01-09 21:35 128K 
[IMG]97391181-international-day-to-end-violence-against-sex-workers-sign-banft160_medium.jpg2017-01-09 21:36 186K 
[IMG]97391193-pomme-jaune-sur-table-en-boisft160_medium.jpg2017-01-09 21:35 135K 
[IMG]97391197-hamburger-rathausft160_medium.jpg2017-01-09 21:33 176K 
[IMG]97391199-set-of-sunscreen-lotions-isolated-on-white-backgroundft160_medium.jpg2017-01-09 21:37 160K 
[IMG]97391203-fishing-boat-on-a-protaras-beach-mediterranean-sea-cyprusft160_medium.jpg2017-01-09 21:35 157K 
[IMG]97391217-sherborne-abbey-dorset-england-ukft160_medium.jpg2017-01-09 21:32 179K 
[IMG]97391220-prostitute-with-poster-stop-violence-poster-for-international-dft160_medium.jpg2017-01-09 21:37 153K 
[IMG]97391221-girl-with-a-smile-wearing-a-white-t-shirt-jumpsft160_medium.jpg2017-01-09 21:39 136K 
[IMG]97391222-sunflower-field-overft160_medium.jpg2017-01-09 21:33 186K 
[IMG]97391227-a-beautiful-green-and-red-aurora-dancingft160_medium.jpg2017-01-09 21:37 134K 
[IMG]97391240-coloring-book-fun-fat-prostitute-woman-sexy-employee-girl-provft160_medium.jpg2017-01-09 21:37 137K 
[IMG]97391248-sushift160_medium.jpg2017-01-09 21:34 270K 
[IMG]97391255ft160_medium.jpg2017-01-09 21:39 204K 
[IMG]97391263-fishing-boat-on-a-protaras-beach-mediterranean-sea-cyprusft160_medium.jpg2017-01-09 21:36 149K 
[IMG]97391265-sherborne-abbey-dorset-england-ukft160_medium.jpg2017-01-09 21:32 199K 
[IMG]97391267-shots-of-a-metal-barbells-and-weightsft160_medium.jpg2017-01-09 21:36 165K 
[IMG]97391268ft160_medium.jpg2017-01-09 21:35 172K 
[IMG]97391271-stop-violence-ban-fight-forbidden-fist-red-label-ft160_medium.jpg2017-01-09 21:38 154K 
[IMG]97391273-happy-new-year-2016-text-designft160_medium.jpg2017-01-09 21:34 147K 
[IMG]97391274-ile-grecqueft160_medium.jpg2017-01-09 21:35 178K 
[IMG]97391275ft160_medium.jpg2017-01-09 21:32 205K 
[IMG]97391284-happy-new-year-2016-text-designft160_medium.jpg2017-01-09 21:36 149K 
[IMG]97391290-prostitute-seamless-pattern-prostitutes-in-background-many-girft160_medium.jpg2017-01-09 21:36 217K 
[IMG]97391295ft160_medium.jpg2017-01-09 21:33 173K 
[IMG]97391299-happy-new-year-2016-text-designft160_medium.jpg2017-01-09 21:32 148K 
[IMG]97391300-sushift160_medium.jpg2017-01-09 21:34 248K 
[IMG]97391301-earth-on-plate-planet-food-cutlery-fork-and-knife-globe-awarft160_medium.jpg2017-01-09 21:32 124K 
[IMG]97391305-fishing-boat-on-a-protaras-beach-mediterranean-sea-cyprusft160_medium.jpg2017-01-09 21:36 133K 
[IMG]97391306-happy-new-year-2016-text-designft160_medium.jpg2017-01-09 21:38 146K 
[IMG]97391309-sherborne-abbey-dorset-england-ukft160_medium.jpg2017-01-09 21:36 191K 
[IMG]97391310-set-of-sunscreen-in-a-tropical-beachft160_medium.jpg2017-01-09 21:39 161K 
[IMG]97391312-steinmaennchenft160_medium.jpg2017-01-09 21:36 155K 
[IMG]97391320-pine-wood-texture-backgroundft160_medium.jpg2017-01-09 21:39 153K 
[IMG]97391324-laptop-with-blank-screenft160_medium.jpg2017-01-09 21:33 120K 
[IMG]97391325-happy-new-year-2016-text-designft160_medium.jpg2017-01-09 21:35 143K 
[IMG]97391333-intelligence-of-the-human-brain-ft160_medium.jpg2017-01-09 21:32 186K 
[IMG]97391343-fishing-boat-on-a-protaras-beach-mediterranean-sea-cyprusft160_medium.jpg2017-01-09 21:35 143K 
[IMG]97391344-public-transports-concept-wih-doodle-design-styleft160_medium.jpg2017-01-09 21:34 172K 
[IMG]97391361-sushift160_medium.jpg2017-01-09 21:37 239K 
[IMG]97391364-sherborne-abbey-dorset-england-ukft160_medium.jpg2017-01-09 21:36 187K 
[IMG]97391365-collection-of-sunscreen-on-white-table-with-tropical-backgroundft160_medium.jpg2017-01-09 21:34 179K 
[IMG]97391380-renewable-and-alternative-energy-concept-with-doodle-design-styft160_medium.jpg2017-01-09 21:39 174K 
[IMG]97391392ft160_medium.jpg2017-01-09 21:34 122K 
[IMG]97391401-intelligence-of-the-human-brain-ft160_medium.jpg2017-01-09 21:36 255K 
[IMG]97391418-intelligence-of-the-human-brain-ft160_medium.jpg2017-01-09 21:37 169K 
[IMG]97391442-strartup-launch-strategy-concept-with-doodle-design-styleft160_medium.jpg2017-01-09 21:36 177K 
[IMG]97391444-sushift160_medium.jpg2017-01-09 21:32 247K 
[IMG]97391451-intelligence-of-the-human-brain-ft160_medium.jpg2017-01-09 21:33 162K 
[IMG]97391457-set-of-sun-lotions-in-a-sunny-skyft160_medium.jpg2017-01-09 21:36 148K 
[IMG]97391459-ile-grecqueft160_medium.jpg2017-01-09 21:33 149K 
[IMG]97391464-intelligence-of-the-human-brain-ft160_medium.jpg2017-01-09 21:34 168K 
[IMG]97391473-red-caviar-sushi-set-sakura-branch-and-chopsticksft160_medium.jpg2017-01-09 21:33 192K 
[IMG]97391478-intelligence-of-the-human-brain-ft160_medium.jpg2017-01-09 21:33 209K 
[IMG]97391495-intelligence-of-the-human-brain-ft160_medium.jpg2017-01-09 21:38 179K 
[IMG]97391499-red-caviar-sushi-set-sakura-branch-and-green-teaft160_medium.jpg2017-01-09 21:35 227K 
[IMG]97391505-antarktisft160_medium.jpg2017-01-09 21:39 147K 
[IMG]97391520-a-beautiful-green-and-red-aurora-dancingft160_medium.jpg2017-01-09 21:36 128K 
[IMG]97391531-intelligence-of-the-human-brain-ft160_medium.jpg2017-01-09 21:35 249K 
[IMG]97391547-sunflower-field-overft160_medium.jpg2017-01-09 21:34 257K 
[IMG]97391558ft160_medium.jpg2017-01-09 21:33 142K 
[IMG]97391562-ile-grecqueft160_medium.jpg2017-01-09 21:37 131K 
[IMG]97391563-water-transport-business-concept-with-doodle-design-styleft160_medium.jpg2017-01-09 21:36 176K 
[IMG]97391585-citrus-fruits-oranges-limes-and-lemonsft160_medium.jpg2017-01-09 21:35 166K 
[IMG]97391586-intelligence-of-the-human-brain-ft160_medium.jpg2017-01-09 21:33 229K 
[IMG]97391594-set-of-sun-lotions-isolated-on-a-sunny-backgroundft160_medium.jpg2017-01-09 21:37 163K 
[IMG]97391604-steinmaennchenft160_medium.jpg2017-01-09 21:34 141K 
[IMG]97391605-woman-running-on-the-beachft160_medium.jpg2017-01-09 21:39 140K 
[IMG]97391611-winning-business-plan-concept-with-doodle-design-styleft160_medium.jpg2017-01-09 21:33 170K 
[IMG]97391629-black-and-white-background-with-pattern-and-music-iconft160_medium.jpg2017-01-09 21:37 245K 
[IMG]97391634-sunflower-field-overft160_medium.jpg2017-01-09 21:34 216K 
[IMG]97391644-intelligence-of-the-human-brain-ft160_medium.jpg2017-01-09 21:34 146K 
[IMG]97391656-hamburger-rathausft160_medium.jpg2017-01-09 21:35 135K 
[IMG]97391657-funny-fat-prostitute-in-red-dress-slut-with-bag-on-white-backgrft160_medium.jpg2017-01-09 21:38 129K 
[IMG]97391670-intelligence-of-the-human-brain-ft160_medium.jpg2017-01-09 21:37 165K 
[IMG]97391687-woman-holding-large-bouquet-of-roses-girl-and-lots-of-color-coft160_medium.jpg2017-01-09 21:32 156K 
[IMG]97391688-potes-after-the-rain-cantabria-spain-ft160_medium.jpg2017-01-09 21:36 189K 
[IMG]97391697-antarktis-eisbergft160_medium.jpg2017-01-09 21:36 167K 
[IMG]97391698-white-lilies-bunch-isolated-on-a-white-backgroundft160_medium.jpg2017-01-09 21:38 142K 
[IMG]97391700-a-beautiful-green-and-red-aurora-dancingft160_medium.jpg2017-01-09 21:33 111K 
[IMG]97391704-sushi-setft160_medium.jpg2017-01-09 21:34 204K 
[IMG]97391720-still-life-vase-and-applesft160_medium.jpg2017-01-09 21:37 187K 
[IMG]97391725-still-life-vase-and-applesft160_medium.jpg2017-01-09 21:35 168K 
[IMG]97391727-santa-blowing-snow-indoors-to-camera-room-with-fireplace-and-christmas-tree-giftsft160_medium.jpg2017-01-09 21:33 139K 
[IMG]97391728-fetish-stuff-hand-cuffs-whip-and-extreme-high-heels-shoesft160_medium.jpg2017-01-09 21:35 137K 
[IMG]97391730-woman-meditating-on-beach-in-lotus-positionft160_medium.jpg2017-01-09 21:38 130K 
[IMG]97391731-business-success-and-marketing-strategy-concept-with-doodle-design-styleft160_medium.jpg2017-01-09 21:32 180K 
[IMG]97391744-foggy-twilight-in-semur-en-auxois-burgundy-franceft160_medium.jpg2017-01-09 21:34 161K 
[IMG]97391765-business-success-and-marketing-strategy-concept-with-doodle-design-styleft160_medium.jpg2017-01-09 21:35 165K 
[IMG]97391766-barcodeft160_medium.jpg2017-01-09 21:37 121K 
[IMG]97391769-pine-conesft160_medium.jpg2017-01-09 21:34 141K 
[IMG]97391773-group-of-sunscreen-in-a-tropical-beachft160_medium.jpg2017-01-09 21:38 151K 
[IMG]97391774-old-paper-with-frayed-edges-isolated-on-the-white-ft160_medium.jpg2017-01-09 21:36 146K 
[IMG]97391791-sparklerft160_medium.jpg2017-01-09 21:39 111K 
[IMG]97391799-a-beautiful-green-and-red-aurora-dancingft160_medium.jpg2017-01-09 21:34 118K 
[IMG]97391800-price-of-oilft160_medium.jpg2017-01-09 21:35 113K 
[IMG]97391810-rome-jesus-is-nailed-to-the-cross-bronze-relief-ft160_medium.jpg2017-01-09 21:35 222K 
[IMG]97391818-valentines-day-toy-hearts-on-woodft160_medium.jpg2017-01-09 21:38 170K 
[IMG]97391825-brown-walletft160_medium.jpg2017-01-09 21:38 119K 
[IMG]97391839-tekirova-tekirova-is-a-tourist-village-in-the-area-of-kemer-turkish-province-of-antalya-ft160_medium.jpg2017-01-09 21:36 188K 
[IMG]97391851ft160_medium.jpg2017-01-09 21:32 181K 
[IMG]97391853-yellow-daisy-and-a-bee-on-itft160_medium.jpg2017-01-09 21:35 177K 
[IMG]97391855-tafeleisberg-antarktis-ft160_medium.jpg2017-01-09 21:37 125K 
[IMG]97391859-sushi-setft160_medium.jpg2017-01-09 21:33 207K 
[IMG]97391876-beautiful-church-of-san-giorgio-maggiore-and-gondolas-venice-ift160_medium.jpg2017-01-09 21:36 159K 
[IMG]97391878-chaferft160_medium.jpg2017-01-09 21:35 141K 
[IMG]97391880-junge-in-einer-wieseft160_medium.jpg2017-01-09 21:34 176K 
[IMG]97391888-new-year-and-christmas-celebration-with-champagne-slow-motionft160_medium.jpg2017-01-09 21:38 158K 
[IMG]97391889-valentines-day-toy-hearts-on-woodft160_medium.jpg2017-01-09 21:35 171K 
[IMG]97391910-christmas-cardft160_medium.jpg2017-01-09 21:36 122K 
[IMG]97391915-business-success-and-marketing-strategy-concept-with-doodle-design-styleft160_medium.jpg2017-01-09 21:34 169K 
[IMG]97391923-red-poppies-isolated-on-whiteft160_medium.jpg2017-01-09 21:36 166K 
[IMG]97391937-a-beautiful-green-and-red-aurora-dancingft160_medium.jpg2017-01-09 21:36 128K 
[IMG]97391941-sushi-setft160_medium.jpg2017-01-09 21:32 280K 
[IMG]97391944ft160_medium.jpg2017-01-09 21:34 183K 
[IMG]97391947-orchidft160_medium.jpg2017-01-09 21:35 163K 
[IMG]97391952-rodeo-and-geological-rock-formations-argentinaft160_medium.jpg2017-01-09 21:32 111K 
[IMG]97391954-imagen-de-rondaft160_medium.jpg2017-01-09 21:36 181K 
[IMG]97391980-tafeleisberg-antarktisft160_medium.jpg2017-01-09 21:35 174K 
[IMG]97391993-raureif-winter-waldft160_medium.jpg2017-01-09 21:38 188K 
[IMG]97392019-sushi-setft160_medium.jpg2017-01-09 21:32 283K 
[IMG]97392023-raureif-winter-waldft160_medium.jpg2017-01-09 21:33 188K 
[IMG]97392028-raureif-winter-waldft160_medium.jpg2017-01-09 21:35 187K 
[IMG]97392030-winter-holidays-woman-close-upft160_medium.jpg2017-01-09 21:36 189K 
[IMG]97392035-hamburger-rathausft160_medium.jpg2017-01-09 21:37 204K 
[IMG]97392039-tennis-sport-game-ft160_medium.jpg2017-01-09 21:33 160K 
[IMG]97392051-beer-in-old-mugsft160_medium.jpg2017-01-09 21:35 255K 
[IMG]97392058-hamburger-rathausft160_medium.jpg2017-01-09 21:36 167K 
[IMG]97392059-tennis-sport-game-graphic-ft160_medium.jpg2017-01-09 21:33 208K 
[IMG]97392074-tennis-sport-game-ft160_medium.jpg2017-01-09 21:34 162K 
[IMG]97392076-fuerteventura-pico-del-zarzaft160_medium.jpg2017-01-09 21:35 174K 
[IMG]97392086-beautiful-fashion-model-girl-close-up-with-puzzle-in-her-hairft160_medium.jpg2017-01-09 21:38 158K 
[IMG]97392091-beer-in-old-mugsft160_medium.jpg2017-01-09 21:32 210K 
[IMG]97392094-tennis-sport-game-ft160_medium.jpg2017-01-09 21:36 162K 
[IMG]97392102-triceratopsft160_medium.jpg2017-01-09 21:33 199K 
[IMG]97392109-wild-hare-sitting-in-grass-and-scratching-his-fur-with-his-legs-closeupft160_medium.jpg2017-01-09 21:36 171K 
[IMG]97392114-arnie-per-api-per-la-produzione-di-mieleft160_medium.jpg2017-01-09 21:36 210K 
[IMG]97392125-tennis-sport-gameft160_medium.jpg2017-01-09 21:39 167K 
[IMG]97392131-christmas-vintage-background-with-drops-snowflakesft160_medium.jpg2017-01-09 21:37 179K 
[IMG]97392134-triceratopsft160_medium.jpg2017-01-09 21:33 199K 
[IMG]97392145-beer-in-old-mugsft160_medium.jpg2017-01-09 21:36 228K 
[IMG]97392155-grilled-steak-with-spices-and-wineft160_medium.jpg2017-01-09 21:38 206K 
[IMG]97392159-voucher-gift-card-layout-template-for-your-promotional-design-ft160_medium.jpg2017-01-09 21:35 192K 
[IMG]97392161-topmost-branches-of-red-maple-under-a-blue-skyft160_medium.jpg2017-01-09 21:32 168K 
[IMG]97392167-tennis-sport-gameft160_medium.jpg2017-01-09 21:38 169K 
[IMG]97392179-beer-in-old-mugsft160_medium.jpg2017-01-09 21:36 190K 
[IMG]97392182-white-abstract-organic-background-3d-render-soft-shadowsft160_medium.jpg2017-01-09 21:36 198K 
[IMG]97392189-vector-hand-drawn-olive-branch-detailed-sketch-illustrationft160_medium.jpg2017-01-09 21:35 182K 
[IMG]97392205-warning-co2ft160_medium.jpg2017-01-09 21:32 173K 
[IMG]97392206-grilled-steak-with-spices-and-wineft160_medium.jpg2017-01-09 21:36 197K 
[IMG]97392212-tennis-sport-game-ft160_medium.jpg2017-01-09 21:36 163K 
[IMG]97392215-warning-co2ft160_medium.jpg2017-01-09 21:32 169K 
[IMG]97392220-pencil-marker-brushft160_medium.jpg2017-01-09 21:36 116K 
[IMG]97392224-warning-pollutionft160_medium.jpg2017-01-09 21:35 169K 
[IMG]97392243-tennis-sport-game-ft160_medium.jpg2017-01-09 21:35 201K 
[IMG]97392255-pontons-dans-le-port-d-ouistreham-ft160_medium.jpg2017-01-09 21:37 155K 
[IMG]97392259-girl-watching-the-ocean-sea-horizon-with-a-moon-rise-ft160_medium.jpg2017-01-09 21:36 125K 
[IMG]97392263ft160_medium.jpg2017-01-09 21:32 161K 
[IMG]97392269-tennis-sport-game-ft160_medium.jpg2017-01-09 21:37 146K 
[IMG]97392272-open-bookft160_medium.jpg2017-01-09 21:37 138K 
[IMG]97392278-tennis-sport-game-ft160_medium.jpg2017-01-09 21:34 134K 
[IMG]97392310-tennis-sport-game-ft160_medium.jpg2017-01-09 21:33 184K 
[IMG]97392314-open-bookft160_medium.jpg2017-01-09 21:38 116K 
[IMG]97392321-an-older-couple-holding-hands-and-walking-over-a-small-bridge-at-a-resortft160_medium.jpg2017-01-09 21:36 162K 
[IMG]97392322-tennis-sport-game-ft160_medium.jpg2017-01-09 21:34 164K 
[IMG]97392334ft160_medium.jpg2017-01-09 21:35 168K 
[IMG]97392338-calf-grazing-in-wetland-watched-by-a-stork-4k-uhdft160_medium.jpg2017-01-09 21:35 150K 
[IMG]97392341-beer-in-old-mugsft160_medium.jpg2017-01-09 21:36 214K 
[IMG]97392342-tennis-sport-game-ft160_medium.jpg2017-01-09 21:34 178K 
[IMG]97392352-vintage-manual-coffee-grinder-with-coffee-beansft160_medium.jpg2017-01-09 21:34 216K 
[IMG]97392355-tennis-sport-game-ft160_medium.jpg2017-01-09 21:34 161K 
[IMG]97392356-beautiful-church-of-san-giorgio-maggiore-and-gondolas-venice-ift160_medium.jpg2017-01-09 21:38 150K 
[IMG]97392367-shots-of-a-metal-barbells-and-weightsft160_medium.jpg2017-01-09 21:32 173K 
[IMG]97392373ft160_medium.jpg2017-01-09 21:35 166K 
[IMG]97392374-hamburger-rathausft160_medium.jpg2017-01-09 21:35 136K 
[IMG]97392377-beer-in-old-mugsft160_medium.jpg2017-01-09 21:32 264K 
[IMG]97392379-interer-modern-living-room-light-ft160_medium.jpg2017-01-09 21:32 139K 
[IMG]97392380-defocused-nature-light-effect-abstract-blur-background-for-web-designft160_medium.jpg2017-01-09 21:37 118K 
[IMG]97392395-tennis-sport-gameft160_medium.jpg2017-01-09 21:35 177K 
[IMG]97392397-gold-christmas-tree-and-train-with-a-smoke-and-gifts-on-white-baft160_medium.jpg2017-01-09 21:35 169K 
[IMG]97392400-aerial-panoramic-view-of-the-city-of-london-at-sunsetft160_medium.jpg2017-01-09 21:33 136K 
[IMG]97392404-fresh-pomegranate-seeds-falling-in-a-glass-bowl-slow-motion-240-fps-ft160_medium.jpg2017-01-09 21:38 117K 
[IMG]97392409-beer-in-old-mugsft160_medium.jpg2017-01-09 21:37 225K 
[IMG]97392413-tennis-sport-gameft160_medium.jpg2017-01-09 21:32 204K 
[IMG]97392416-beautiful-little-girl-putting-finger-up-to-lips-and-ask-silence-isolated-on-white-child-doing-a-please-keep-quiet-gesture-towards-the-cameraft160_medium.jpg2017-01-09 21:35 145K 
[IMG]97392417ft160_medium.jpg2017-01-09 21:33 159K 
[IMG]97392443-little-yellow-kitten-on-blue-backgroundft160_medium.jpg2017-01-09 21:36 167K 
[IMG]97392447-wheat-beer-and-ingredients-in-glassesft160_medium.jpg2017-01-09 21:38 254K 
[IMG]97392462-couscous-in-a-wooden-spoon-on-rustic-tableft160_medium.jpg2017-01-09 21:33 150K 
[IMG]97392465-hamburger-rathausft160_medium.jpg2017-01-09 21:35 175K 
[IMG]97392467-christmas-gift-boxft160_medium.jpg2017-01-09 21:33 147K 
[IMG]97392470-imagen-de-rondaft160_medium.jpg2017-01-09 21:35 188K 
[IMG]97392474-christmas-gift-boxft160_medium.jpg2017-01-09 21:33 139K 
[IMG]97392478-rome-the-jesus-carries-his-cross-bronze-relief-ft160_medium.jpg2017-01-09 21:35 228K 
[IMG]97392483-christmas-gift-boxft160_medium.jpg2017-01-09 21:33 143K 
[IMG]97392492-wheat-beer-in-glassft160_medium.jpg2017-01-09 21:33 187K 
[IMG]97392494-panorama-tre-cime-di-lavaredoft160_medium.jpg2017-01-09 21:39 172K 
[IMG]97392499-festive-alphapet-font-to-use-for-children-s-parties-invitationsft160_medium.jpg2017-01-09 21:35 216K 
[IMG]97392508-man-in-a-boater-hat-french-styleft160_medium.jpg2017-01-09 21:36 142K 
[IMG]97392512-aerial-panoramic-view-of-the-financial-district-of-the-docklands-in-londonft160_medium.jpg2017-01-09 21:35 135K 
[IMG]97392524-wheat-beer-and-ingredients-in-glassesft160_medium.jpg2017-01-09 21:36 247K 
[IMG]97392526-typewriter-with-latest-news-buttonsft160_medium.jpg2017-01-09 21:33 134K 
[IMG]97392540-fussballft160_medium.jpg2017-01-09 21:33 139K 
[IMG]97392544ft160_medium.jpg2017-01-09 21:34 150K 
[IMG]97392546-palabra-light-luz-creada-con-luz-y-con-una-bombilla-haciendo-de-la-letra-i-ft160_medium.jpg2017-01-09 21:39 138K 
[IMG]97392548ft160_medium.jpg2017-01-09 21:38 152K 
[IMG]97392551-hand-drawing-floral-frameft160_medium.jpg2017-01-09 21:34 189K 
[IMG]97392552-gift-box-goldft160_medium.jpg2017-01-09 21:35 144K 
[IMG]97392554-tennis-sport-gameft160_medium.jpg2017-01-09 21:34 134K 
[IMG]97392556-winds-blowing-green-tree-with-andean-mountain-argentinaft160_medium.jpg2017-01-09 21:38 192K 
[IMG]97392566-fussballft160_medium.jpg2017-01-09 21:37 136K 
[IMG]97392582-alba-sulle-tre-cime-di-lavaredoft160_medium.jpg2017-01-09 21:37 170K 
[IMG]97392590-hund-und-katze-auf-zerstoerter-couchft160_medium.jpg2017-01-09 21:35 166K 
[IMG]97392592-defocused-nature-light-effect-abstract-blur-background-for-web-designft160_medium.jpg2017-01-09 21:34 117K 
[IMG]97392594-natural-backgroundft160_medium.jpg2017-01-09 21:37 152K 
[IMG]97392597-tennis-sport-gameft160_medium.jpg2017-01-09 21:39 152K 
[IMG]97392608-tennis-sport-gameft160_medium.jpg2017-01-09 21:34 149K 
[IMG]97392612-defocused-nature-light-effect-abstract-blur-background-for-web-designft160_medium.jpg2017-01-09 21:38 131K 
[IMG]97392616-2016-merry-christmas-and-happy-new-year-backgroundft160_medium.jpg2017-01-09 21:32 221K 
[IMG]97392626-weihnachten-anhaengerft160_medium.jpg2017-01-09 21:35 114K 
[IMG]97392628-hand-drawing-floral-frameft160_medium.jpg2017-01-09 21:38 236K 
[IMG]97392630-weihnachtsbaumft160_medium.jpg2017-01-09 21:36 104K 
[IMG]97392634-weihnachtsbaum-mit-kugelnft160_medium.jpg2017-01-09 21:39 104K 
[IMG]97392635-defocused-nature-light-effect-abstract-blur-background-for-web-designft160_medium.jpg2017-01-09 21:37 119K 
[IMG]97392638-weihnachtsbaum-mit-kugelnft160_medium.jpg2017-01-09 21:38 105K 
[IMG]97392641-tennis-sport-gameft160_medium.jpg2017-01-09 21:33 190K 
[IMG]97392642-weihnachtsbaum-mit-kugelnft160_medium.jpg2017-01-09 21:38 146K 
[IMG]97392652-weihnachtsbaumft160_medium.jpg2017-01-09 21:37 147K 
[IMG]97392656-weihnachtsbaumft160_medium.jpg2017-01-09 21:35 140K 
[IMG]97392659-hand-drawn-sketch-set-cats-vector-illustrationft160_medium.jpg2017-01-09 21:36 224K 
[IMG]97392660-weihnachtsbaumft160_medium.jpg2017-01-09 21:38 134K 
[IMG]97392668-hummelft160_medium.jpg2017-01-09 21:36 168K 
[IMG]97392670-2016-merry-christmas-and-happy-new-year-backgroundft160_medium.jpg2017-01-09 21:34 224K 
[IMG]97392677-sunflower-field-overft160_medium.jpg2017-01-09 21:36 210K 
[IMG]97392679ft160_medium.jpg2017-01-09 21:34 126K 
[IMG]97392688-rome-the-jesus-is-condemned-to-death-bronze-reliefft160_medium.jpg2017-01-09 21:38 239K 
[IMG]97392694-abalone-brettspielft160_medium.jpg2017-01-09 21:35 166K 
[IMG]97392709-defocused-nature-light-effect-abstract-blur-background-for-web-designft160_medium.jpg2017-01-09 21:38 115K 
[IMG]97392724-wheat-beer-in-glassft160_medium.jpg2017-01-09 21:33 162K 
[IMG]97392728-young-man-enjoying-the-freedom-in-nature-ft160_medium.jpg2017-01-09 21:35 123K 
[IMG]97392745-white-stork-taking-off-from-wetland-4k-uhdft160_medium.jpg2017-01-09 21:37 158K 
[IMG]97392767-beautiful-poster-with-imprint-of-red-lipstickft160_medium.jpg2017-01-09 21:39 206K 
[IMG]97392799-salt-desert-in-the-jujuy-province-argentinaft160_medium.jpg2017-01-09 21:38 170K 
[IMG]97392823-beer-in-glassft160_medium.jpg2017-01-09 21:38 266K 
[IMG]97392825-rome-jesus-meets-the-women-of-jerusalem-bronze-relief-ft160_medium.jpg2017-01-09 21:34 221K 
[IMG]97392828-hamburger-rathausft160_medium.jpg2017-01-09 21:36 198K 
[IMG]97392832-set-of-19-imprint-of-pink-lipstick-ft160_medium.jpg2017-01-09 21:34 175K 
[IMG]97392852-kleine-insel-mit-hausft160_medium.jpg2017-01-09 21:33 165K 
[IMG]97392860-perfect-imprint-of-pink-lipstick-ft160_medium.jpg2017-01-09 21:35 192K 
[IMG]97392882-bush-on-the-sand-sahara-desertft160_medium.jpg2017-01-09 21:37 155K 
[IMG]97392884-couscous-in-a-black-bowl-and-wooden-spoonft160_medium.jpg2017-01-09 21:38 152K 
[IMG]97392896-black-handwritten-text-and-imprint-of-lipstickft160_medium.jpg2017-01-09 21:38 178K 
[IMG]97392914-black-handwritten-text-and-imprint-of-lipstickft160_medium.jpg2017-01-09 21:33 240K 
[IMG]97392919-briefportoft160_medium.jpg2017-01-09 21:33 129K 
[IMG]97392925-hamburger-rathausft160_medium.jpg2017-01-09 21:35 158K 
[IMG]97392944-set-of-15-imprint-of-pink-lipstick-ft160_medium.jpg2017-01-09 21:35 160K 
[IMG]97392950-jumping-into-the-water-ft160_medium.jpg2017-01-09 21:39 127K 
[IMG]97392953-beer-in-glassft160_medium.jpg2017-01-09 21:33 260K 
[IMG]97392976-schiefertafelft160_medium.jpg2017-01-09 21:32 189K 
[IMG]97392992-perfect-imprint-of-red-lipstick-ft160_medium.jpg2017-01-09 21:38 188K 
[IMG]97392997-beer-ingredients-in-barrelsft160_medium.jpg2017-01-09 21:39 240K 
[IMG]97392998-car-theft-with-a-bloody-green-eyes-ft160_medium.jpg2017-01-09 21:35 126K 
[IMG]97392999-beer-in-glassft160_medium.jpg2017-01-09 21:37 224K 
[IMG]97393003-sunflower-field-overft160_medium.jpg2017-01-09 21:38 228K 
[IMG]97393018-perfect-imprint-of-red-lipstick-ft160_medium.jpg2017-01-09 21:38 187K 
[IMG]97393024-windy-beach-at-hot-summer-dayft160_medium.jpg2017-01-09 21:33 133K 
[IMG]97393033-schloesschen-im-wasserft160_medium.jpg2017-01-09 21:33 174K 
[IMG]97393034-woman-washing-carrots-ft160_medium.jpg2017-01-09 21:36 157K 
[IMG]97393047-sohn-auf-dem-armft160_medium.jpg2017-01-09 21:33 163K 
[IMG]97393050-weihnachtsbaum-mit-kugelnft160_medium.jpg2017-01-09 21:37 139K 
[IMG]97393054-telecommunication-repeater-towerft160_medium.jpg2017-01-09 21:34 149K 
[IMG]97393057-weihnachtsbaumft160_medium.jpg2017-01-09 21:38 134K 
[IMG]97393060-weihnachtsbaumft160_medium.jpg2017-01-09 21:32 114K 
[IMG]97393067-weihnachtsbaum-mit-kugelnft160_medium.jpg2017-01-09 21:34 107K 
[IMG]97393078-weihnachtsbaumft160_medium.jpg2017-01-09 21:37 119K 
[IMG]97393087-weihnachtliche-anhaengerft160_medium.jpg2017-01-09 21:39 115K 
[IMG]97393096-rentier-schlittenft160_medium.jpg2017-01-09 21:35 119K 
[IMG]97393097-close-up-of-a-cheese-and-lettuce-submarine-isolated-on-whiteft160_medium.jpg2017-01-09 21:38 137K 
[IMG]97393103-duschbrauseft160_medium.jpg2017-01-09 21:39 166K 
[IMG]97393110-violinft160_medium.jpg2017-01-09 21:36 135K 
[IMG]97393134-delicious-chocolates-and-cocoa-powderft160_medium.jpg2017-01-09 21:35 180K 
[IMG]97393139-she-loves-this-band-heart-shape-for-the-music-ft160_medium.jpg2017-01-09 21:32 143K 
[IMG]97393159-phrase-made-of-different-hand-drawn-fontsft160_medium.jpg2017-01-09 21:34 227K 
[IMG]97393166-close-up-of-a-cheese-and-lettuce-submarine-isolated-on-whiteft160_medium.jpg2017-01-09 21:37 149K 
[IMG]97393179-hamburger-rathausft160_medium.jpg2017-01-09 21:35 191K 
[IMG]97393180-delicious-chocolates-and-cocoa-powderft160_medium.jpg2017-01-09 21:34 165K 
[IMG]97393183-big-waves-breaking-at-shoreft160_medium.jpg2017-01-09 21:38 149K 
[IMG]97393197-ein-hochhaus-in-frankfurt-am-mainft160_medium.jpg2017-01-09 21:37 172K 
[IMG]97393218-sunflower-field-overft160_medium.jpg2017-01-09 21:36 217K 
[IMG]97393220-beautiful-brunette-woman-holding-gift-boxft160_medium.jpg2017-01-09 21:36 150K 
[IMG]97393230-weihnachten-hirschft160_medium.jpg2017-01-09 21:32 153K 
[IMG]97393236-weihnachtsbaumft160_medium.jpg2017-01-09 21:35 133K 
[IMG]97393244-weihnachtsbaum-mit-kugelnft160_medium.jpg2017-01-09 21:35 126K 
[IMG]97393247-weihnachtsdekorationft160_medium.jpg2017-01-09 21:38 168K 
[IMG]97393259-ostrich-in-etosha-national-park-namibiaft160_medium.jpg2017-01-09 21:35 160K 
[IMG]97393269-conceptual-3d-compassft160_medium.jpg2017-01-09 21:38 135K 
[IMG]97393274-railway-double-trackft160_medium.jpg2017-01-09 21:37 186K 
[IMG]97393279-ein-hochhaus-in-frankfurt-am-mainft160_medium.jpg2017-01-09 21:37 160K 
[IMG]97393280-weisser-hund-als-engelft160_medium.jpg2017-01-09 21:35 159K 
[IMG]97393283-cumulus-moving-in-blue-sky-and-pushed-by-the-spring-windft160_medium.jpg2017-01-09 21:33 126K 
[IMG]97393289-beautiful-brunette-woman-holding-gift-boxft160_medium.jpg2017-01-09 21:34 136K 
[IMG]97393295-bisonft160_medium.jpg2017-01-09 21:33 187K 
[IMG]97393313-railway-double-trackft160_medium.jpg2017-01-09 21:36 171K 
[IMG]97393323ft160_medium.jpg2017-01-09 21:37 124K 
[IMG]97393338-abstract-backgroundsft160_medium.jpg2017-01-09 21:37 150K 
[IMG]97393340-cheese-and-lettuce-sub-isolated-on-white-backgroundft160_medium.jpg2017-01-09 21:33 143K 
[IMG]97393342-railway-double-trackft160_medium.jpg2017-01-09 21:33 171K 
[IMG]97393348-ein-hochhaus-in-frankfurt-am-mainft160_medium.jpg2017-01-09 21:35 170K 
[IMG]97393353-woman-in-christmas-costume-holding-white-backgroundft160_medium.jpg2017-01-09 21:36 107K 
[IMG]97393355-baby-auf-dem-armft160_medium.jpg2017-01-09 21:38 166K 
[IMG]97393367-christmas-nativity-sceneft160_medium.jpg2017-01-09 21:32 152K 
[IMG]97393378-woman-covering-her-eyes-with-both-handsft160_medium.jpg2017-01-09 21:39 122K 
[IMG]97393381-x-masft160_medium.jpg2017-01-09 21:33 157K 
[IMG]97393382-christmas-cardft160_medium.jpg2017-01-09 21:33 146K 
[IMG]97393386-high-speed-trainft160_medium.jpg2017-01-09 21:36 172K 
[IMG]97393388-frame-with-smiling-gray-catft160_medium.jpg2017-01-09 21:36 140K 
[IMG]97393393-cheese-and-lettuce-sub-isolated-on-white-backgroundft160_medium.jpg2017-01-09 21:33 151K 
[IMG]97393404-wheat-earsft160_medium.jpg2017-01-09 21:34 201K 
[IMG]97393410-wheat-earsft160_medium.jpg2017-01-09 21:36 189K 
[IMG]97393414-lichtturm-solingen-graefrath-nordrhein-westfalenft160_medium.jpg2017-01-09 21:33 152K 
[IMG]97393426-oval-frame-with-gray-catft160_medium.jpg2017-01-09 21:37 135K 
[IMG]97393433-sketch-russia-moscow-red-square-spasskaya-tower-isolatedft160_medium.jpg2017-01-09 21:32 123K 
[IMG]97393436-bagels-and-hot-teaft160_medium.jpg2017-01-09 21:37 151K 
[IMG]97393437ft160_medium.jpg2017-01-09 21:37 134K 
[IMG]97393443-round-frame-with-varicolored-catsft160_medium.jpg2017-01-09 21:38 173K 
[IMG]97393447-best-internet-concept-globe-glowing-lines-on-technological-background-electronics-wi-fi-rays-symbols-internet-television-mobile-and-satellite-communicationsft160_medium.jpg2017-01-09 21:34 258K 
[IMG]97393454-hamburger-rathausft160_medium.jpg2017-01-09 21:36 179K 
[IMG]97393456-aerial-view-of-trains-leaving-and-entering-london-bridge-train-station-in-londonft160_medium.jpg2017-01-09 21:37 160K 
[IMG]97393466-hamburger-rathausft160_medium.jpg2017-01-09 21:37 197K 
[IMG]97393480-aerial-panning-view-of-tower-bridge-and-the-tower-of-london-at-sunsetft160_medium.jpg2017-01-09 21:39 138K 
[IMG]97393485-hummel-auf-einer-schnittlauchblueteft160_medium.jpg2017-01-09 21:33 193K 
[IMG]97393488-thanksgiving-day-monkey-lady-holding-turkey-and-pumpkin-pie-ft160_medium.jpg2017-01-09 21:36 150K 
[IMG]97393489-springbok-in-namibiaft160_medium.jpg2017-01-09 21:36 144K 
[IMG]97393500-prozentft160_medium.jpg2017-01-09 21:36 143K 
[IMG]97393501-fool-s-day-monkey-clown-ft160_medium.jpg2017-01-09 21:36 147K 
[IMG]97393513-mother-s-day-monkey-holds-drawing-of-his-mother-ft160_medium.jpg2017-01-09 21:38 143K 
[IMG]97393520-father-s-day-monkey-child-hugging-dad-ft160_medium.jpg2017-01-09 21:35 135K 
[IMG]97393525-wooden-gavelft160_medium.jpg2017-01-09 21:39 168K 
[IMG]97393535-victory-monkey-hanging-on-gymnastics-rings-and-holding-winning-ft160_medium.jpg2017-01-09 21:36 148K 
[IMG]97393551-best-internet-concept-globe-glowing-lines-on-technological-background-electronics-wi-fi-rays-symbols-internet-television-mobile-and-satellite-communicationsft160_medium.jpg2017-01-09 21:32 195K 
[IMG]97393552-fresh-pink-orchid-in-potft160_medium.jpg2017-01-09 21:35 167K 
[IMG]97393556-christmas-monkey-hanging-on-christmas-tree-and-holding-four-chrft160_medium.jpg2017-01-09 21:36 164K 
[IMG]97393559-springbok-in-namibiaft160_medium.jpg2017-01-09 21:36 152K 
[IMG]97393572-new-year-little-monkey-holding-clock-and-sparklers-ft160_medium.jpg2017-01-09 21:35 159K 
[IMG]97393578-neujahr-2016-wuerfel-rot-fallendft160_medium.jpg2017-01-09 21:33 137K 
[IMG]97393589-mechelen-carved-angels-form-presbytery-of-st-rumbold-s-cathedralft160_medium.jpg2017-01-09 21:34 216K 
[IMG]97393592-external-hard-diskft160_medium.jpg2017-01-09 21:37 137K 
[IMG]97393595-valentine-s-day-pair-of-boy-and-girl-monkeys-in-love-ft160_medium.jpg2017-01-09 21:39 149K 
[IMG]97393611-holzoberflaecheft160_medium.jpg2017-01-09 21:37 158K 
[IMG]97393614-abstract-backgroundsft160_medium.jpg2017-01-09 21:37 151K 
[IMG]97393617-roll-filled-with-cheese-tomato-and-lettuceft160_medium.jpg2017-01-09 21:34 149K 
[IMG]97393620-merry-christmas-to-youft160_medium.jpg2017-01-09 21:34 228K 
[IMG]97393622-mas-decor-wreath-vectorft160_medium.jpg2017-01-09 21:36 168K 
[IMG]97393623-little-girl-with-blond-hair-wear-elegant-dress-posing-beside-christmas-treeft160_medium.jpg2017-01-09 21:35 168K 
[IMG]97393645-card-with-christmas-wreathft160_medium.jpg2017-01-09 21:33 193K 
[IMG]97393649-hamburger-rathausft160_medium.jpg2017-01-09 21:36 202K 
[IMG]97393651-sunbeds-on-tropical-calm-beach-with-turquoise-caribbean-sea-water-and-white-sandft160_medium.jpg2017-01-09 21:38 147K 
[IMG]97393655-beautiful-cute-little-girl-with-blond-hair-wear-elegant-dressft160_medium.jpg2017-01-09 21:33 158K 
[IMG]97393658-hamburger-rathausft160_medium.jpg2017-01-09 21:36 163K 
[IMG]97393663-woman-with-blond-curly-hair-and-evening-makeup-wears-luxurious-party-dressft160_medium.jpg2017-01-09 21:32 135K 
[IMG]97393676-brick-wall-for-cg-textures-backgrounds-ft160_medium.jpg2017-01-09 21:36 157K 
[IMG]97393687-avion-de-chasse-cockpit-2-pilotesft160_medium.jpg2017-01-09 21:34 131K 
[IMG]97393688-einzigartigft160_medium.jpg2017-01-09 21:37 175K 
[IMG]97393695-law-conceptft160_medium.jpg2017-01-09 21:32 185K 
[IMG]97393698-sunflower-field-overft160_medium.jpg2017-01-09 21:38 242K 
[IMG]97393700-dubrovnik-panoramaft160_medium.jpg2017-01-09 21:38 211K 
[IMG]97393704-facade-leaking-infraredft160_medium.jpg2017-01-09 21:35 162K 
[IMG]97393719-christmas-tree-with-red-and-golden-baublesft160_medium.jpg2017-01-09 21:38 208K 
[IMG]97393721-abstract-motion-background-golden-bokeh-in-the-form-of-heart-ft160_medium.jpg2017-01-09 21:38 124K 
[IMG]97393723-law-conceptft160_medium.jpg2017-01-09 21:35 159K 
[IMG]97393731-holzft160_medium.jpg2017-01-09 21:33 144K 
[IMG]97393736-valentines-day-backgroundft160_medium.jpg2017-01-09 21:36 124K 
[IMG]97393738-woman-with-dark-hair-and-evening-makeup-wears-luxurious-bijouft160_medium.jpg2017-01-09 21:38 144K 
[IMG]97393745-valentines-day-backgroundft160_medium.jpg2017-01-09 21:36 114K 
[IMG]97393746-happy-couple-using-laptop-in-kitchenft160_medium.jpg2017-01-09 21:39 157K 
[IMG]97393755-law-conceptft160_medium.jpg2017-01-09 21:32 170K 
[IMG]97393756-valentines-day-backgroundft160_medium.jpg2017-01-09 21:35 115K 
[IMG]97393763-woman-with-dark-hair-and-evening-makeup-wears-luxurious-bijouft160_medium.jpg2017-01-09 21:35 156K 
[IMG]97393765-law-conceptft160_medium.jpg2017-01-09 21:32 160K 
[IMG]97393766-euro-papierschiff-auf-weissft160_medium.jpg2017-01-09 21:37 123K 
[IMG]97393770-amber-fortressft160_medium.jpg2017-01-09 21:36 175K 
[IMG]97393777-brunnen-auf-dem-altstaedter-kirchenplatzft160_medium.jpg2017-01-09 21:38 178K 
[IMG]97393778-zebra-in-etosha-namibiaft160_medium.jpg2017-01-09 21:35 212K 
[IMG]97393780-sunlight-through-the-trees-in-the-forest-while-snowingft160_medium.jpg2017-01-09 21:38 184K 
[IMG]97393784-dubrovnik-kroatienft160_medium.jpg2017-01-09 21:39 192K 
[IMG]97393785ft160_medium.jpg2017-01-09 21:38 118K 
[IMG]97393791-holzbretterft160_medium.jpg2017-01-09 21:36 187K 
[IMG]97393804-zielgruppe-target-2ft160_medium.jpg2017-01-09 21:37 170K 
[IMG]97393811-brown-eggs-cottage-cheese-milk-and-sour-creamft160_medium.jpg2017-01-09 21:32 134K 
[IMG]97393815ft160_medium.jpg2017-01-09 21:36 151K 
[IMG]97393823-medical-desktop-on-pc-screen-isolated-on-whiteft160_medium.jpg2017-01-09 21:35 181K 
[IMG]97393827-traditional-colorful-christmas-treeft160_medium.jpg2017-01-09 21:36 225K 
[IMG]97393830-antwerp-sermon-of-st-john-the-baptist-by-van-balen-h-de-oude-in-cathedralft160_medium.jpg2017-01-09 21:33 147K 
[IMG]97393836ft160_medium.jpg2017-01-09 21:37 150K 
[IMG]97393842-happy-new-year-invitation-vector-template-flyer-setft160_medium.jpg2017-01-09 21:32 232K 
[IMG]97393845-cute-little-baby-lying-beside-christmas-tree-with-a-lot-of-presentsft160_medium.jpg2017-01-09 21:33 176K 
[IMG]97393851-happy-new-year-vector-template-banners-set-modern-flatft160_medium.jpg2017-01-09 21:35 240K 
[IMG]97393858-dubrovnik-mit-adriaft160_medium.jpg2017-01-09 21:35 160K 
[IMG]97393864-hamburger-rathausft160_medium.jpg2017-01-09 21:34 152K 
[IMG]97393865-cute-little-baby-lying-beside-christmas-tree-with-a-lot-of-presentsft160_medium.jpg2017-01-09 21:33 182K 
[IMG]97393876-white-tablet-computer-on-a-gray-surfaceft160_medium.jpg2017-01-09 21:34 130K 
[IMG]97393881-grey-snow-background-winter-card-ft160_medium.jpg2017-01-09 21:37 141K 
[IMG]97393885-merry-christmas-flat-style-vector-template-banners-setft160_medium.jpg2017-01-09 21:39 226K 
[IMG]97393890-hamburger-rathausft160_medium.jpg2017-01-09 21:38 149K 
[IMG]97393900-green-christmas-tree-backgroundft160_medium.jpg2017-01-09 21:35 150K 
[IMG]97393902-closeup-handful-walnuts-on-the-wooden-surfaceft160_medium.jpg2017-01-09 21:37 200K 
[IMG]97393909-handful-walnuts-on-the-wooden-table-closeupft160_medium.jpg2017-01-09 21:35 196K 
[IMG]97393918-black-tablet-computer-with-a-keyboard-mouse-pen-and-notepadft160_medium.jpg2017-01-09 21:37 130K 
[IMG]97393924-handful-walnuts-on-the-wooden-surface-closeupft160_medium.jpg2017-01-09 21:36 186K 
[IMG]97393929-law-concept-statue-gavel-scale-and-booksft160_medium.jpg2017-01-09 21:33 189K 
[IMG]97393934-tablet-computer-with-a-keyboard-mouse-glasses-pen-and-notepadft160_medium.jpg2017-01-09 21:35 138K 
[IMG]97393936-white-tablet-computer-on-office-desk-with-a-notebookft160_medium.jpg2017-01-09 21:37 121K 
[IMG]97393946-green-christmas-tree-backgroundft160_medium.jpg2017-01-09 21:36 147K 
[IMG]97393964-dubrovnik-kroatienft160_medium.jpg2017-01-09 21:37 204K 
[IMG]97393967-merry-christmas-ft160_medium.jpg2017-01-09 21:34 218K 
[IMG]97393991-vorbereitung-auf-den-winter-gartenarbeitft160_medium.jpg2017-01-09 21:34 191K 
[IMG]97393992-family-in-the-children-s-room-next-to-the-crib-ft160_medium.jpg2017-01-09 21:37 141K 
[IMG]97393997-haifische-townsville-reef-hq-aquariumft160_medium.jpg2017-01-09 21:37 125K 
[IMG]97394005-personnage-ecologique-avec-la-planete-terreft160_medium.jpg2017-01-09 21:37 116K 
[IMG]97394027-paulibrunnen-in-erlangenft160_medium.jpg2017-01-09 21:36 174K 
[IMG]97394041-the-white-houseft160_medium.jpg2017-01-09 21:35 149K 
[IMG]97394049-laub-zusammen-fegen-den-garten-winterfest-machenft160_medium.jpg2017-01-09 21:35 223K 
[IMG]97394052-statue-of-libertyft160_medium.jpg2017-01-09 21:38 123K 
[IMG]97394054-vertraeumtes-maedchen-am-seeft160_medium.jpg2017-01-09 21:35 141K 
[IMG]97394064-dubrovnik-panoramaft160_medium.jpg2017-01-09 21:33 204K 
[IMG]97394067-statue-of-libertyft160_medium.jpg2017-01-09 21:33 138K 
[IMG]97394109-jerusalem-the-icon-of-madonna-from-church-of-the-holy-sepulchreft160_medium.jpg2017-01-09 21:38 196K 
[IMG]97394122-pearl-harbor-remembrance-dayft160_medium.jpg2017-01-09 21:37 238K 
[IMG]97394125-hand-drawn-children-faces-setft160_medium.jpg2017-01-09 21:34 226K 
[IMG]97394127-pearl-harbor-remembrance-dayft160_medium.jpg2017-01-09 21:36 241K 
[IMG]97394128-gartenabfall-mit-schaufel-und-rechen-entsorgenft160_medium.jpg2017-01-09 21:36 208K 
[IMG]97394132-oysters-still-lifeft160_medium.jpg2017-01-09 21:37 215K 
[IMG]97394139-pearl-harbor-remembrance-dayft160_medium.jpg2017-01-09 21:37 242K 
[IMG]97394144-pearl-harbor-remembrance-dayft160_medium.jpg2017-01-09 21:32 237K 
[IMG]97394152-pearl-harbor-remembrance-dayft160_medium.jpg2017-01-09 21:38 235K 
[IMG]97394154-pearl-harbor-remembrance-dayft160_medium.jpg2017-01-09 21:33 248K 
[IMG]97394157-sunflower-field-overft160_medium.jpg2017-01-09 21:36 178K 
[IMG]97394163-gartenabfall-im-muellsack-entsorgen-und-dann-in-die-bio-tonneft160_medium.jpg2017-01-09 21:35 227K 
[IMG]97394181-salad-with-couscousft160_medium.jpg2017-01-09 21:38 197K 
[IMG]97394184-mother-helping-daughter-blowing-her-noseft160_medium.jpg2017-01-09 21:38 164K 
[IMG]97394185-uebergewichtft160_medium.jpg2017-01-09 21:37 180K 
[IMG]97394189-salad-with-couscousft160_medium.jpg2017-01-09 21:35 187K 
[IMG]97394191-anochecer-en-mirador-en-benidormft160_medium.jpg2017-01-09 21:34 147K 
[IMG]97394193-two-giraffes-in-the-etosha-n-p-namibiaft160_medium.jpg2017-01-09 21:38 169K 
[IMG]97394197-salad-with-couscousft160_medium.jpg2017-01-09 21:34 196K 
[IMG]97394198-white-rose-against-yellow-backgroundft160_medium.jpg2017-01-09 21:38 140K 
[IMG]97394200-young-bloomimg-fresh-green-leaves-of-lilac-on-bright-sunny-dayft160_medium.jpg2017-01-09 21:35 182K 
[IMG]97394203-salad-with-couscousft160_medium.jpg2017-01-09 21:38 199K 
[IMG]97394238-montage-von-einem-vorbaurollladen-mit-fuehrungsschienen-in-die-laibung-setzenft160_medium.jpg2017-01-09 21:32 132K 
[IMG]97394247-two-sweet-boys-brothers-making-gingerbread-cookies-houseft160_medium.jpg2017-01-09 21:35 174K 
[IMG]97394251-christmas-decorations-made-from-strawft160_medium.jpg2017-01-09 21:36 202K 
[IMG]97394254-heron-standing-on-a-pierft160_medium.jpg2017-01-09 21:39 127K 
[IMG]97394274ft160_medium.jpg2017-01-09 21:34 187K 
[IMG]97394277-20-30-40-60-70-50-indirimft160_medium.jpg2017-01-09 21:37 186K 
[IMG]97394280-set-of-logos-for-honey-productsft160_medium.jpg2017-01-09 21:33 138K 
[IMG]97394284ft160_medium.jpg2017-01-09 21:34 193K 
[IMG]97394303-christmas-decorations-made-from-strawft160_medium.jpg2017-01-09 21:36 189K 
[IMG]97394317-arbeitft160_medium.jpg2017-01-09 21:39 140K 
[IMG]97394319-wind-turbineft160_medium.jpg2017-01-09 21:37 153K 
[IMG]97394333-set-of-logos-for-honey-productsft160_medium.jpg2017-01-09 21:37 139K 
[IMG]97394345-20-indirimft160_medium.jpg2017-01-09 21:37 138K 
[IMG]97394346-young-and-beautifulft160_medium.jpg2017-01-09 21:35 135K 
[IMG]97394358-white-horses-grazingft160_medium.jpg2017-01-09 21:37 166K 
[IMG]97394369-elephant-in-etosha-namibiaft160_medium.jpg2017-01-09 21:37 165K 
[IMG]97394370-young-and-beautifulft160_medium.jpg2017-01-09 21:39 147K 
[IMG]97394372-merry-christmas-ft160_medium.jpg2017-01-09 21:33 218K 
[IMG]97394377-coffee-cup-and-metal-turkft160_medium.jpg2017-01-09 21:36 224K 
[IMG]97394379-honey-and-spicesft160_medium.jpg2017-01-09 21:35 185K 
[IMG]97394383-smiling-family-on-sofa-with-kids-playing-video-gamesft160_medium.jpg2017-01-09 21:37 167K 
[IMG]97394392-30-indirimft160_medium.jpg2017-01-09 21:37 138K 
[IMG]97394405-christmas-tree-decorationsft160_medium.jpg2017-01-09 21:32 217K 
[IMG]97394408-mother-and-daughter-near-christmas-treeft160_medium.jpg2017-01-09 21:35 200K 
[IMG]97394411-a-warm-sun-illuminates-the-maple-leaves-through-the-tree-branches-in-autumnft160_medium.jpg2017-01-09 21:33 217K 
[IMG]97394418-yeah-all-ok-ft160_medium.jpg2017-01-09 21:33 137K 
[IMG]97394421-arbeitft160_medium.jpg2017-01-09 21:33 141K 
[IMG]97394424-brick-wall-for-cg-textures-backgrounds-ft160_medium.jpg2017-01-09 21:35 199K 
[IMG]97394429-pretty-little-girl-with-flashlightft160_medium.jpg2017-01-09 21:36 179K 
[IMG]97394433-yes-i-ve-made-it-ft160_medium.jpg2017-01-09 21:38 127K 
[IMG]97394444-coburger-vesteft160_medium.jpg2017-01-09 21:37 158K 
[IMG]97394448-portrait-of-two-successful-business-middle-aged-lady-on-a-whiteft160_medium.jpg2017-01-09 21:34 157K 
[IMG]97394451-portrait-of-two-successful-business-middle-aged-lady-on-a-whiteft160_medium.jpg2017-01-09 21:35 159K 
[IMG]97394453-portrait-of-two-successful-business-middle-aged-lady-on-a-whiteft160_medium.jpg2017-01-09 21:35 157K 
[IMG]97394457-christmas-backgroundft160_medium.jpg2017-01-09 21:32 151K 
[IMG]97394459-christmas-decorationft160_medium.jpg2017-01-09 21:37 213K 
[IMG]97394461-portrait-of-two-successful-business-middle-aged-lady-on-a-whiteft160_medium.jpg2017-01-09 21:33 165K 
[IMG]97394475--yellow-sand-and-smooth-ocean-water-with-a-bubblesft160_medium.jpg2017-01-09 21:36 176K 
[IMG]97394479-portrait-of-three-girlfriends-successful-business-middle-aged-laft160_medium.jpg2017-01-09 21:34 169K 
[IMG]97394480-modern-car-interiorft160_medium.jpg2017-01-09 21:37 133K 
[IMG]97394485-portrait-of-three-girlfriends-successful-business-middle-aged-laft160_medium.jpg2017-01-09 21:34 171K 
[IMG]97394487-brake-and-accelerator-pedalft160_medium.jpg2017-01-09 21:35 148K 
[IMG]97394493-car-air-conditionft160_medium.jpg2017-01-09 21:38 173K 
[IMG]97394499-hand-fansft160_medium.jpg2017-01-09 21:36 161K 
[IMG]97394501-70-indirimft160_medium.jpg2017-01-09 21:37 157K 
[IMG]97394507-concert-lightft160_medium.jpg2017-01-09 21:32 152K 
[IMG]97394509-modern-car-interiorft160_medium.jpg2017-01-09 21:36 148K 
[IMG]97394513-modern-car-interiorft160_medium.jpg2017-01-09 21:33 152K 
[IMG]97394525-sport-shoesft160_medium.jpg2017-01-09 21:37 139K 
[IMG]97394528-yeah-all-ok-ft160_medium.jpg2017-01-09 21:35 163K 
[IMG]97394530-facility-management-house-or-building-with-text-on-blackboard-backgroundft160_medium.jpg2017-01-09 21:38 147K 
[IMG]97394533-back-passenger-seatsft160_medium.jpg2017-01-09 21:33 149K 
[IMG]97394541-modern-car-interiorft160_medium.jpg2017-01-09 21:35 146K 
[IMG]97394550-young-and-beautifulft160_medium.jpg2017-01-09 21:38 156K 
[IMG]97394552-sunflower-field-overft160_medium.jpg2017-01-09 21:36 179K 
[IMG]97394559-modern-car-interiorft160_medium.jpg2017-01-09 21:37 151K 
[IMG]97394560-button-for-starting-stoppingft160_medium.jpg2017-01-09 21:35 150K 
[IMG]97394571-old-wooden-planks-surface-backgroundft160_medium.jpg2017-01-09 21:37 197K 
[IMG]97394577-leather-car-seats-ft160_medium.jpg2017-01-09 21:35 130K 
[IMG]97394578-straw-christmas-decorations-handmadeft160_medium.jpg2017-01-09 21:37 229K 
[IMG]97394580-santa-talk-on-digital-tablet-christmas-tree-gift-room-with-fireplace-and-christmas-tree-giftsft160_medium.jpg2017-01-09 21:38 169K 
[IMG]97394584-leather-car-seats-ft160_medium.jpg2017-01-09 21:37 200K 
[IMG]97394587-rabbitft160_medium.jpg2017-01-09 21:33 114K 
[IMG]97394590-leather-car-seats-ft160_medium.jpg2017-01-09 21:37 116K 
[IMG]97394592-full-moon-which-is-mirrored-in-the-lake-while-it-snowsft160_medium.jpg2017-01-09 21:38 133K 
[IMG]97394607-modern-car-interiorft160_medium.jpg2017-01-09 21:36 148K 
[IMG]97394609-door-of-the-car-inside-panelft160_medium.jpg2017-01-09 21:35 148K 
[IMG]97394616-arbeitft160_medium.jpg2017-01-09 21:39 141K 
[IMG]97394621-40-indirimft160_medium.jpg2017-01-09 21:36 164K 
[IMG]97394622-balcony-ful-with-flowerft160_medium.jpg2017-01-09 21:35 244K 
[IMG]97394629-cute-little-baby-feetft160_medium.jpg2017-01-09 21:35 142K 
[IMG]97394637-leather-car-seats-ft160_medium.jpg2017-01-09 21:38 130K 
[IMG]97394641-young-and-beautifulft160_medium.jpg2017-01-09 21:33 141K 
[IMG]97394646-modern-car-interior-ft160_medium.jpg2017-01-09 21:36 139K 
[IMG]97394649-modern-car-interior-ft160_medium.jpg2017-01-09 21:33 141K 
[IMG]97394651-brake-and-accelerator-pedal-ft160_medium.jpg2017-01-09 21:36 124K 
[IMG]97394656-an-insightful-look-on-blue-colored-eyesft160_medium.jpg2017-01-09 21:35 151K 
[IMG]97394658-changing-cubicles-at-the-baechft160_medium.jpg2017-01-09 21:38 187K 
[IMG]97394665-young-and-beautifulft160_medium.jpg2017-01-09 21:38 136K 
[IMG]97394667-tomatoes-and-tomato-juiceft160_medium.jpg2017-01-09 21:37 125K 
[IMG]97394671-modern-car-interiorft160_medium.jpg2017-01-09 21:36 155K 
[IMG]97394672-jerusalem-atrium-in-church-of-the-pater-noster-prayer-in-lot-of-languagesft160_medium.jpg2017-01-09 21:32 182K 
[IMG]97394674-car-speedometr-dashboardft160_medium.jpg2017-01-09 21:34 155K 
[IMG]97394675-old-cardboard-boxsft160_medium.jpg2017-01-09 21:37 205K 
[IMG]97394681-part-of-steering-wheelft160_medium.jpg2017-01-09 21:36 145K 
[IMG]97394688-spa-written-on-the-beach-sandft160_medium.jpg2017-01-09 21:35 143K 
[IMG]97394690-woman-at-the-phoneft160_medium.jpg2017-01-09 21:37 141K 
[IMG]97394695-modern-car-interior-ft160_medium.jpg2017-01-09 21:37 159K 
[IMG]97394696-sunflower-field-overft160_medium.jpg2017-01-09 21:33 189K 
[IMG]97394698-little-boy-in-santa-s-hat-ready-for-festive-christmas-timeft160_medium.jpg2017-01-09 21:34 163K 
[IMG]97394699-modern-car-interiorft160_medium.jpg2017-01-09 21:32 159K 
[IMG]97394702-two-cheetahs-in-the-etosha-national-park-namibiaft160_medium.jpg2017-01-09 21:38 183K 
[IMG]97394704-handmade-christmas-decorationsft160_medium.jpg2017-01-09 21:38 220K 
[IMG]97394709-tea-leaves-at-a-plantationft160_medium.jpg2017-01-09 21:38 158K 
[IMG]97394713-close-up-portrait-of-a-sad-boy-in-black-hatft160_medium.jpg2017-01-09 21:35 129K 
[IMG]97394723-modern-car-interiorft160_medium.jpg2017-01-09 21:38 154K 
[IMG]97394730-e-commerce-concept-woman-shoppingft160_medium.jpg2017-01-09 21:36 128K 
[IMG]97394735-60-indirimft160_medium.jpg2017-01-09 21:33 159K 
[IMG]97394740-zug-am-loreley-hafenft160_medium.jpg2017-01-09 21:36 194K 
[IMG]97394745-geometric-abstract-iceberg-flat-style-vector-illustrationft160_medium.jpg2017-01-09 21:34 145K 
[IMG]97394752-insightful-look-brown-eyes-boyft160_medium.jpg2017-01-09 21:37 139K 
[IMG]97394757-insightful-look-brown-eyes-boyft160_medium.jpg2017-01-09 21:36 145K 
[IMG]97394764-uebergewichtft160_medium.jpg2017-01-09 21:33 180K 
[IMG]97394769-insightful-look-blue-eyesft160_medium.jpg2017-01-09 21:36 153K 
[IMG]97394785-earth-tree-symbol-vectorft160_medium.jpg2017-01-09 21:33 134K 
[IMG]97394786-yupi-new-car-ft160_medium.jpg2017-01-09 21:37 165K 
[IMG]97394787-insightful-look-blue-eyesft160_medium.jpg2017-01-09 21:38 158K 
[IMG]97394789-rheinblick-vom-loreleyfelsenft160_medium.jpg2017-01-09 21:32 180K 
[IMG]97394790-enthusiastic-businessman-with-santa-hat-looking-at-the-piggybank-ft160_medium.jpg2017-01-09 21:36 161K 
[IMG]97394794-50-indirimft160_medium.jpg2017-01-09 21:37 154K 
[IMG]97394803-scratched-orange-round-seal-with-the-inscription-best-customer-vector-svgft160_medium.jpg2017-01-09 21:37 216K 
[IMG]97394804ft160_medium.jpg2017-01-09 21:32 169K 
[IMG]97394805-insightful-look-blue-eyesft160_medium.jpg2017-01-09 21:38 164K 
[IMG]97394813-business-woman-at-the-phoneft160_medium.jpg2017-01-09 21:35 160K 
[IMG]97394815-male-female-scale-vectorft160_medium.jpg2017-01-09 21:37 138K 
[IMG]97394817-insightful-look-blue-eyesft160_medium.jpg2017-01-09 21:37 151K 
[IMG]97394818-sunflower-field-overft160_medium.jpg2017-01-09 21:36 189K 
[IMG]97394821-yupi-new-car-ft160_medium.jpg2017-01-09 21:33 160K 
[IMG]97394824-chrysanthemumft160_medium.jpg2017-01-09 21:34 171K 
[IMG]97394825-white-foam-pollution-in-the-dnieper-river-in-kievft160_medium.jpg2017-01-09 21:32 176K 
[IMG]97394828-mind-or-heart-decision-vectorft160_medium.jpg2017-01-09 21:35 143K 
[IMG]97394834-two-giraffes-in-the-etosha-n-p-namibiaft160_medium.jpg2017-01-09 21:36 169K 
[IMG]97394839-healthy-skin-skincare-conceptft160_medium.jpg2017-01-09 21:37 144K 
[IMG]97394841-insightful-look-blue-eyesft160_medium.jpg2017-01-09 21:38 110K 
[IMG]97394842-woman-signing-employment-contract-ft160_medium.jpg2017-01-09 21:36 135K 
[IMG]97394845-jerusalem-the-orthodox-church-tomb-of-the-virgin-maryft160_medium.jpg2017-01-09 21:38 184K 
[IMG]97394848-insightful-look-blue-eyesft160_medium.jpg2017-01-09 21:32 144K 
[IMG]97394852-winterliche-dekorationft160_medium.jpg2017-01-09 21:36 118K 
[IMG]97394853-healthy-skin-skincare-conceptft160_medium.jpg2017-01-09 21:37 144K 
[IMG]97394859-full-moon-which-is-mirrored-in-the-lakeft160_medium.jpg2017-01-09 21:37 115K 
[IMG]97394866-insightful-look-blue-eyesft160_medium.jpg2017-01-09 21:35 144K 
[IMG]97394867-vertraulich-stempel-im-buero-mit-ordnerft160_medium.jpg2017-01-09 21:38 182K 
[IMG]97394874-brass-bells-christmas-decorations-isolated-on-whiteft160_medium.jpg2017-01-09 21:33 119K 
[IMG]97394878-beautiful-woman-with-healthy-long-hairft160_medium.jpg2017-01-09 21:38 141K 
[IMG]97394880-brass-bells-christmas-decorations-isolated-on-whiteft160_medium.jpg2017-01-09 21:36 122K 
[IMG]97394881-food-posters-collectionft160_medium.jpg2017-01-09 21:38 220K 
[IMG]97394895-autumn-in-central-park-of-riga-latviaft160_medium.jpg2017-01-09 21:34 219K 
[IMG]97394898-vesuvius-naples-italyft160_medium.jpg2017-01-09 21:32 160K 
[IMG]97394899-winter-card-vector-illustration-hand-lettered-text-with-snow-symbols-on-a-blue-background-ft160_medium.jpg2017-01-09 21:36 183K 
[IMG]97394901-employer-showing-new-employee-where-to-sign-employment-contractft160_medium.jpg2017-01-09 21:34 145K 
[IMG]97394903-porthole-with-sky-viewft160_medium.jpg2017-01-09 21:37 179K 
[IMG]97394904-beautiful-woman-with-healthy-long-hairft160_medium.jpg2017-01-09 21:38 133K 
[IMG]97394907-wood-background-with-portholeft160_medium.jpg2017-01-09 21:35 165K 
[IMG]97394910-cute-dog-with-a-boneft160_medium.jpg2017-01-09 21:38 192K 
[IMG]97394916-personnage-ecologique-avec-un-moulin-a-ventft160_medium.jpg2017-01-09 21:37 118K 
[IMG]97394921-an-insightful-look-on-blue-colored-eyesft160_medium.jpg2017-01-09 21:33 147K 
[IMG]97394930-beautiful-woman-with-healthy-long-hairft160_medium.jpg2017-01-09 21:33 145K 
[IMG]97394935-jerusalem-the-madonna-painting-on-the-wood-in-orthodox-church-tomb-of-the-virgin-maryft160_medium.jpg2017-01-09 21:38 156K 
[IMG]97394937-great-bustard-or-otis-tarda-on-the-textured-backgroundft160_medium.jpg2017-01-09 21:33 185K 
[IMG]97394946-time-to-makeupft160_medium.jpg2017-01-09 21:35 141K 
[IMG]97394950-christmas-market-in-wroclaw-at-evening-poland-europeft160_medium.jpg2017-01-09 21:33 176K 
[IMG]97394964-time-to-makeupft160_medium.jpg2017-01-09 21:33 146K 
[IMG]97394965-christmas-market-in-wroclaw-at-evening-poland-europeft160_medium.jpg2017-01-09 21:37 202K 
[IMG]97394973ft160_medium.jpg2017-01-09 21:38 147K 
[IMG]97394976ft160_medium.jpg2017-01-09 21:33 135K 
[IMG]97394984-rote-weihnachtskugel-im-schneeft160_medium.jpg2017-01-09 21:35 154K 
[IMG]97394985-great-bustard-or-otis-tarda-isolated-on-white-backgroundft160_medium.jpg2017-01-09 21:38 180K 
[IMG]97394990-beautiful-fireworks-above-cityscape-of-kuala-lumpur-skylineft160_medium.jpg2017-01-09 21:35 144K 
[IMG]97394993-beautiful-woman-with-healthy-long-hairft160_medium.jpg2017-01-09 21:35 130K 

Apache/2.4.12 (Ubuntu) Server at pics.mein-artikel-design.de Port 443